N8MS Weather Reports


Display with metric or nautical units.
time (UTC)temp
F
wind
direction
speed
MPH
gust
MPH
rain 1hr
in
rain 24hr
in
rain mn
in
humidity
%
barometer
mb
20260831002051 70 210 4.0 7.0 0.00 0.44 0.44 92 1015.6
20260831002002 70 244 4.0 7.0 0.00 0.44 0.44 92 1015.6
20260831001830 70 278 3.0 7.0 0.00 0.44 0.44 92 1015.6
20260831001726 70 241 3.0 7.0 0.00 0.44 0.44 92 1015.6
20260831001648 70 235 3.0 9.0 0.00 0.44 0.44 92 1015.7
20260831001539 70 242 3.0 9.0 0.00 0.44 0.44 92 1015.7
20260831001451 70 244 4.0 9.0 0.00 0.44 0.44 92 1015.7
20260831001341 70 250 4.0 9.0 0.00 0.44 0.44 92 1015.6
20260831001234 70 243 3.0 9.0 0.00 0.44 0.44 92 1015.6
20260831001127 70 239 3.0 9.0 0.00 0.44 0.44 92 1015.7
20260831001039 70 239 3.0 9.0 0.00 0.44 0.44 92 1015.7
20260831000951 70 246 3.0 9.0 0.00 0.44 0.44 92 1015.7
20260831000902 70 202 3.0 9.0 0.00 0.44 0.44 93 1015.7
20260831000739 70 234 3.0 7.0 0.00 0.44 0.44 93 1015.7
20260831000630 70 263 3.0 7.0 0.00 0.44 0.44 93 1015.6
20260831000542 70 192 3.0 7.0 0.00 0.44 0.44 93 1015.7
20260831000454 70 242 3.0 5.0 0.01 0.44 0.44 93 1015.6
20260831000344 70 243 3.0 5.0 0.01 0.44 0.44 93 1015.5
20260831000255 70 245 2.0 5.0 0.01 0.44 0.44 93 1015.7
20260831000156 70 227 3.0 5.0 0.01 0.44 0.44 93 1015.7
20260831000026 70 217 2.0 5.0 0.01 0.44 0.44 93 1015.6
20260830235938 70 219 2.0 5.0 0.01 0.44 0.44 93 1015.7
20260830235829 70 238 2.0 5.0 0.01 0.44 0.44 93 1015.7
20260830235725 70 244 3.0 5.0 0.01 0.44 0.44 93 1015.8
20260830235638 70 233 3.0 5.0 0.01 0.44 0.44 93 1015.7
20260830235530 70 244 2.0 5.0 0.01 0.44 0.44 93 1015.6
20260830235440 70 255 1.0 3.0 0.01 0.44 0.44 93 1015.6
20260830235333 70 290 0.0 4.0 0.01 0.44 0.44 93 1015.6
20260830235224 70 240 0.0 4.0 0.01 0.44 0.44 93 1015.6
20260830235136 70 240 0.0 4.0 0.01 0.44 0.44 93 1015.7
20260830235027 70 240 0.0 5.0 0.01 0.44 0.44 93 1015.8
20260830234943 70 189 1.0 5.0 0.02 0.44 0.44 93 1015.9
20260830234855 70 189 1.0 5.0 0.02 0.44 0.44 93 1015.9
20260830234805 70 241 1.0 5.0 0.02 0.44 0.44 93 1016.1
20260830234706 70 136 1.0 5.0 0.02 0.44 0.44 93 1016.1
20260830234557 70 229 1.0 5.0 0.02 0.44 0.44 93 1016.0
20260830234427 70 191 0.0 5.0 0.02 0.44 0.44 93 1016.0
20260830234339 70 191 1.0 5.0 0.02 0.44 0.44 93 1016.1
20260830234231 70 191 2.0 5.0 0.02 0.44 0.44 93 1016.2
20260830234143 70 150 2.0 5.0 0.02 0.44 0.44 93 1016.3
20260830234034 70 172 1.0 5.0 0.02 0.44 0.44 93 1016.3
20260830233930 70 242 1.0 5.0 0.03 0.44 0.44 94 1016.4
20260830233823 70 242 1.0 5.0 0.03 0.44 0.44 94 1016.6
20260830233735 70 242 2.0 5.0 0.03 0.44 0.44 94 1016.5
20260830233626 70 242 2.0 5.0 0.03 0.44 0.44 94 1016.6
20260830233539 70 214 2.0 5.0 0.03 0.44 0.44 94 1016.6
20260830233432 70 221 3.0 5.0 0.03 0.44 0.44 94 1016.6
20260830233325 70 241 3.0 8.0 0.03 0.44 0.44 94 1016.7
20260830233210 70 252 2.0 8.0 0.03 0.44 0.44 94 1016.6
20260830233100 70 252 3.0 8.0 0.03 0.44 0.44 94 1016.6
20260830232950 70 252 2.0 8.0 0.04 0.44 0.44 94 1016.6
20260830232841 70 236 3.0 8.0 0.04 0.44 0.44 94 1016.7
20260830232733 70 236 4.0 8.0 0.04 0.44 0.44 94 1016.6
20260830232625 70 251 4.0 8.0 0.04 0.44 0.44 94 1016.7
20260830232536 70 226 3.0 8.0 0.04 0.44 0.44 94 1016.7
20260830232429 70 252 3.0 8.0 0.05 0.44 0.44 94 1016.7
20260830232340 70 257 3.0 8.0 0.05 0.44 0.44 94 1016.7
20260830232232 70 244 3.0 8.0 0.05 0.44 0.44 94 1016.8
20260830232127 70 248 3.0 8.0 0.06 0.44 0.44 94 1016.7
20260830232040 70 259 2.0 8.0 0.06 0.44 0.44 94 1016.8
20260830231933 70 259 3.0 8.0 0.07 0.44 0.44 94 1016.8
20260830231825 70 236 3.0 8.0 0.07 0.44 0.44 94 1016.7
20260830231737 70 252 3.0 8.0 0.07 0.44 0.44 94 1016.7
20260830231659 70 268 2.0 5.0 0.07 0.44 0.44 94 1016.7
20260830231552 70 225 2.0 4.0 0.07 0.44 0.44 94 1016.7
20260830231503 70 247 2.0 3.0 0.07 0.44 0.44 94 1016.8
20260830231335 70 254 2.0 3.0 0.07 0.44 0.44 94 1016.7
20260830231230 70 245 1.0 3.0 0.07 0.44 0.44 94 1016.7
20260830231142 70 245 0.0 2.0 0.07 0.44 0.44 94 1016.7
20260830231054 70 167 0.0 0.0 0.07 0.44 0.44 94 1016.7
20260830230925 70 167 0.0 0.0 0.07 0.44 0.44 94 1016.7
20260830230837 70 167 0.0 0.0 0.07 0.44 0.44 94 1016.5
20260830230730 70 167 0.0 0.0 0.07 0.44 0.44 94 1016.6
20260830230642 70 167 0.0 0.0 0.07 0.44 0.44 94 1016.6
20260830230533 70 167 0.0 0.0 0.06 0.43 0.43 94 1016.6
20260830230429 70 167 0.0 0.0 0.06 0.43 0.43 94 1016.5
20260830230342 70 167 0.0 0.0 0.06 0.43 0.43 94 1016.5
20260830230252 70 167 0.0 0.0 0.07 0.43 0.43 94 1016.5
20260830230154 70 167 0.0 0.0 0.07 0.43 0.43 94 1016.5
20260830230025 70 167 0.0 0.0 0.07 0.43 0.43 94 1016.5
20260830225937 70 167 0.0 0.0 0.07 0.43 0.43 94 1016.5
20260830225848 70 167 0.0 0.0 0.08 0.43 0.43 94 1016.4
20260830225740 70 167 0.0 0.0 0.08 0.43 0.43 94 1016.5
20260830225633 70 167 0.0 0.0 0.08 0.43 0.43 94 1016.5
20260830225525 70 167 0.0 0.0 0.09 0.43 0.43 94 1016.5
20260830225440 70 167 0.0 0.0 0.09 0.43 0.43 94 1016.5
20260830225333 70 167 0.0 0.0 0.09 0.43 0.43 94 1016.5
20260830225225 70 167 0.0 0.0 0.10 0.43 0.43 94 1016.5
20260830225137 70 167 0.0 0.0 0.10 0.43 0.43 94 1016.5
20260830225029 70 167 0.0 0.0 0.09 0.42 0.42 93 1016.5
20260830224941 70 167 0.0 0.0 0.10 0.42 0.42 93 1016.5
20260830224832 70 167 0.0 0.0 0.10 0.42 0.42 93 1016.5
20260830224724 70 167 0.0 0.0 0.10 0.42 0.42 93 1016.5
20260830224650 70 167 0.0 0.0 0.10 0.42 0.42 93 1016.5
20260830224541 70 167 0.0 0.0 0.10 0.42 0.42 93 1016.5
20260830224433 70 167 0.0 0.0 0.10 0.42 0.42 93 1016.6
20260830224325 70 167 0.0 0.0 0.11 0.42 0.42 93 1016.6
20260830224237 70 269 0.0 0.0 0.11 0.42 0.42 93 1016.6
20260830224128 71 217 0.0 2.0 0.11 0.42 0.42 93 1016.6
20260830224040 71 217 0.0 2.0 0.11 0.42 0.42 93 1016.7
20260830223932 71 240 0.0 2.0 0.10 0.41 0.41 93 1016.6
20260830223829 71 240 0.0 2.0 0.11 0.41 0.41 93 1016.5
20260830223742 71 240 0.0 2.0 0.11 0.41 0.41 93 1016.6
20260830223632 71 233 0.0 2.0 0.11 0.41 0.41 93 1016.7
20260830223544 71 233 0.0 2.0 0.11 0.41 0.41 93 1016.7
20260830223457 71 233 0.0 2.0 0.11 0.41 0.41 93 1016.7
20260830223349 71 164 0.0 2.0 0.11 0.41 0.41 93 1016.7
20260830223238 71 164 0.0 2.0 0.12 0.41 0.41 93 1016.7
20260830223201 71 209 0.0 2.0 0.12 0.41 0.41 92 1016.7
20260830223031 71 209 0.0 2.0 0.11 0.40 0.40 92 1016.8
20260830222942 71 209 0.0 2.0 0.12 0.40 0.40 92 1016.7
20260830222838 71 209 0.0 3.0 0.12 0.40 0.40 92 1016.9
20260830222730 71 209 0.0 3.0 0.12 0.40 0.40 92 1016.9
20260830222642 71 209 1.0 3.0 0.13 0.40 0.40 92 1016.9
20260830222533 71 209 0.0 3.0 0.13 0.40 0.40 92 1016.9
20260830222445 71 209 0.0 4.0 0.12 0.39 0.39 92 1016.9
20260830222357 71 209 1.0 4.0 0.12 0.39 0.39 92 1016.9
20260830222227 71 209 2.0 5.0 0.11 0.38 0.39 91 1016.9
20260830222139 71 209 2.0 5.0 0.12 0.38 0.38 91 1017.0
20260830222031 71 234 2.0 5.0 0.12 0.38 0.38 91 1017.0
20260830221948 71 241 2.0 5.0 0.11 0.37 0.37 91 1017.1
20260830221839 71 241 2.0 5.0 0.11 0.37 0.37 91 1017.0
20260830221742 71 241 3.0 5.0 0.11 0.37 0.37 91 1017.0
20260830221644 71 242 2.0 5.0 0.11 0.37 0.37 91 1017.0
20260830221535 71 265 3.0 5.0 0.11 0.37 0.37 91 1017.0
20260830221427 71 249 3.0 5.0 0.11 0.37 0.37 91 1016.9
20260830221339 71 266 2.0 5.0 0.11 0.37 0.37 91 1016.9
20260830221231 72 294 2.0 5.0 0.11 0.37 0.37 91 1016.8
20260830221123 72 266 2.0 5.0 0.11 0.37 0.37 91 1016.9
20260830221039 72 248 2.0 5.0 0.11 0.37 0.37 90 1016.8
20260830220931 72 248 2.0 5.0 0.11 0.37 0.37 90 1016.8
20260830220823 72 241 2.0 5.0 0.11 0.37 0.37 90 1016.6
20260830220734 72 151 2.0 5.0 0.12 0.37 0.37 90 1016.7
20260830220647 72 118 2.0 5.0 0.12 0.37 0.37 90 1016.7
20260830220559 72 260 2.0 5.0 0.12 0.37 0.37 90 1016.7
20260830220429 72 206 2.0 5.0 0.12 0.37 0.37 90 1016.8
20260830220343 72 248 2.0 5.0 0.13 0.37 0.37 90 1016.7
20260830220234 72 248 1.0 5.0 0.12 0.36 0.36 90 1016.8
20260830220159 72 221 2.0 5.0 0.12 0.36 0.36 90 1016.8
20260830220031 72 185 2.0 6.0 0.12 0.36 0.36 90 1016.9
20260830215942 72 202 1.0 6.0 0.13 0.36 0.36 90 1017.0
20260830215834 72 159 1.0 8.0 0.12 0.35 0.35 90 1017.1
20260830215637 72 259 2.0 8.0 0.11 0.34 0.34 89 1017.2
20260830215549 72 321 2.0 8.0 0.11 0.34 0.34 90 1017.3
20260830215440 72 319 2.0 8.0 0.12 0.34 0.34 90 1017.4
20260830215332 72 333 4.0 8.0 0.12 0.34 0.34 90 1017.4
20260830215248 72 336 5.0 8.0 0.11 0.33 0.33 90 1017.3
20260830215139 72 340 4.0 8.0 0.11 0.33 0.33 90 1017.5
20260830215050 72 331 2.0 5.0 0.10 0.32 0.32 90 1017.6
20260830214941 72 321 1.0 4.0 0.10 0.32 0.32 90 1017.5
20260830214833 72 342 0.0 5.0 0.10 0.32 0.32 90 1017.5
20260830214724 72 329 0.0 5.0 0.10 0.32 0.32 90 1017.4
20260830214645 72 329 0.0 5.0 0.10 0.32 0.32 90 1017.4
20260830214537 72 329 0.0 5.0 0.10 0.32 0.32 90 1017.3
20260830214429 72 259 1.0 5.0 0.10 0.32 0.32 89 1017.3
20260830214327 72 259 2.0 5.0 0.09 0.31 0.31 89 1017.4
20260830214239 72 259 2.0 5.0 0.09 0.31 0.31 89 1017.3
20260830214151 72 259 3.0 5.0 0.09 0.31 0.31 89 1017.3
20260830214041 72 289 2.0 5.0 0.09 0.31 0.31 89 1017.3
20260830213934 72 275 0.0 4.0 0.09 0.31 0.31 89 1017.3
20260830213824 72 275 1.0 6.0 0.08 0.30 0.30 89 1017.2
20260830213737 72 275 1.0 6.0 0.08 0.30 0.30 89 1017.3
20260830213651 72 275 1.0 6.0 0.08 0.30 0.30 89 1017.3
20260830213602 72 281 0.0 6.0 0.08 0.30 0.30 89 1017.3
20260830213454 72 246 0.0 6.0 0.08 0.30 0.30 88 1017.3
20260830213318 72 246 2.0 6.0 0.07 0.29 0.29 88 1017.2
20260830213235 72 269 2.0 10.0 0.07 0.29 0.29 88 1017.1
20260830213045 73 253 2.0 10.0 0.07 0.29 0.29 88 1017.1
20260830212931 73 257 1.0 10.0 0.06 0.28 0.28 88 1017.2
20260830212842 73 215 1.0 10.0 0.06 0.28 0.28 88 1017.2
20260830212733 73 215 1.0 10.0 0.06 0.28 0.28 88 1017.2
20260830212645 73 215 1.0 10.0 0.05 0.27 0.27 88 1017.2
20260830212556 73 215 2.0 10.0 0.05 0.27 0.27 88 1017.2
20260830212508 73 215 3.0 10.0 0.05 0.27 0.27 88 1017.2
20260830210147 75 243 2.0 12.0 0.02 0.24 0.24 83 1017.3
20260830210108 75 234 3.0 12.0 0.02 0.24 0.24 83 1017.3
20260830205957 75 238 5.0 12.0 0.01 0.23 0.23 82 1017.2
20260830205847 75 238 4.0 14.0 0.01 0.23 0.23 82 1017.2
20260830205757 75 197 2.0 8.0 0.01 0.23 0.23 82 1017.2
20260830205647 75 265 3.0 8.0 0.01 0.23 0.23 82 1017.1
20260830205558 75 265 3.0 8.0 0.01 0.23 0.23 82 1017.1
20260830205509 75 240 5.0 8.0 0.00 0.22 0.22 81 1017.1
20260830205359 75 242 4.0 8.0 0.00 0.22 0.22 81 1017.1
20260830205255 75 155 3.0 8.0 0.00 0.22 0.22 82 1017.1
20260830205204 75 184 1.0 8.0 0.00 0.22 0.22 82 1017.1
20260830205055 75 215 2.0 8.0 0.00 0.22 0.22 82 1017.1
20260830205005 76 234 3.0 8.0 0.00 0.22 0.22 82 1017.0
20260830204855 76 244 2.0 8.0 0.00 0.22 0.22 82 1017.0
20260830204805 76 174 3.0 8.0 0.00 0.22 0.22 82 1016.9
20260830204655 76 202 2.0 8.0 0.00 0.22 0.22 81 1016.9
20260830204617 76 106 2.0 8.0 0.00 0.22 0.22 81 1017.0
20260830204507 76 234 3.0 8.0 0.00 0.22 0.22 81 1017.0
20260830204417 76 272 3.0 8.0 0.00 0.22 0.22 81 1017.0
20260830204250 76 142 3.0 7.0 0.00 0.22 0.22 81 1017.1
20260830204200 76 224 3.0 7.0 0.00 0.22 0.22 81 1016.9
20260830204051 76 244 3.0 8.0 0.00 0.22 0.22 81 1016.9
20260830204002 76 57 3.0 8.0 0.00 0.22 0.22 81 1016.9
20260830203914 76 218 3.0 8.0 0.00 0.22 0.22 81 1016.9
20260830203824 76 241 4.0 8.0 0.00 0.22 0.22 81 1017.0
20260830203654 76 229 4.0 8.0 0.00 0.22 0.22 81 1016.9
20260830203603 77 221 3.0 7.0 0.00 0.22 0.22 81 1016.8
20260830203454 77 236 3.0 7.0 0.00 0.22 0.22 80 1016.8
20260830203408 77 281 3.0 7.0 0.00 0.22 0.22 80 1016.7
20260830203259 77 192 3.0 7.0 0.00 0.22 0.22 80 1016.6
20260830203149 77 180 2.0 6.0 0.00 0.22 0.22 80 1016.4
20260830203111 77 121 2.0 7.0 0.00 0.22 0.22 80 1016.4
20260830202959 77 108 2.0 7.0 0.00 0.22 0.22 80 1016.4
20260830202850 77 262 2.0 6.0 0.00 0.22 0.22 79 1016.5
20260830202801 77 92 2.0 4.0 0.00 0.22 0.22 79 1016.6
20260830202651 77 252 2.0 4.0 0.00 0.22 0.22 79 1016.7
20260830202601 77 134 1.0 4.0 0.00 0.22 0.22 79 1016.9
20260830202513 77 211 2.0 4.0 0.00 0.22 0.22 79 1017.0
20260830202429 77 170 2.0 4.0 0.00 0.22 0.22 79 1017.0
20260830202340 77 244 1.0 4.0 0.00 0.22 0.22 79 1017.0
20260830202231 77 149 1.0 4.0 0.00 0.22 0.22 79 1017.0
20260830202120 77 177 2.0 4.0 0.00 0.22 0.22 78 1017.0
20260830201949 77 136 2.0 8.0 0.00 0.22 0.22 78 1017.1
20260830201901 77 203 2.0 8.0 0.00 0.22 0.22 78 1017.1
20260830201813 77 242 2.0 8.0 0.00 0.22 0.22 78 1017.1
20260830201723 78 236 2.0 8.0 0.00 0.22 0.22 78 1017.2
20260830201625 78 232 3.0 8.0 0.00 0.22 0.22 78 1017.1
20260830201454 78 294 3.0 8.0 0.00 0.22 0.22 77 1017.2
20260830201348 78 245 3.0 8.0 0.00 0.22 0.22 77 1017.3
20260830201300 78 240 4.0 8.0 0.00 0.22 0.22 77 1017.3
20260830201210 78 240 3.0 8.0 0.00 0.22 0.22 77 1017.2
20260830201100 78 237 1.0 7.0 0.00 0.22 0.22 77 1017.2
20260830200951 78 254 2.0 7.0 0.00 0.22 0.22 77 1017.3
20260830200901 78 254 2.0 7.0 0.00 0.22 0.22 76 1017.2
20260830200751 78 228 2.0 7.0 0.00 0.22 0.22 76 1017.2
20260830200702 78 243 3.0 7.0 0.00 0.22 0.22 76 1017.1
20260830200553 78 243 3.0 7.0 0.00 0.22 0.22 75 1017.1
20260830200447 78 254 3.0 7.0 0.00 0.22 0.22 75 1017.0
20260830200359 78 261 4.0 7.0 0.00 0.22 0.22 75 1017.0
20260830200248 79 229 4.0 7.0 0.00 0.22 0.22 75 1016.9
20260830200157 79 263 2.0 6.0 0.00 0.22 0.22 75 1016.9
20260830200120 79 245 2.0 6.0 0.00 0.22 0.22 75 1016.9
20260830195949 79 225 3.0 7.0 0.00 0.22 0.22 74 1016.9
20260830195901 79 231 3.0 7.0 0.00 0.22 0.22 74 1016.8
20260830195751 79 249 3.0 7.0 0.00 0.22 0.22 74 1016.8
20260830195703 79 282 4.0 7.0 0.00 0.22 0.22 74 1016.8
20260830195557 79 217 4.0 7.0 0.00 0.22 0.22 74 1016.8
20260830195449 79 286 4.0 7.0 0.00 0.22 0.22 74 1016.8
20260830195359 79 236 4.0 7.0 0.00 0.22 0.22 73 1016.8
20260830195249 79 256 4.0 7.0 0.00 0.22 0.22 73 1016.8
20260830195159 79 222 4.0 8.0 0.00 0.22 0.22 74 1016.8
20260830195049 79 226 4.0 8.0 0.00 0.22 0.22 73 1016.8
20260830194959 79 216 4.0 8.0 0.00 0.22 0.22 73 1016.8
20260830194908 79 238 4.0 8.0 0.00 0.22 0.22 73 1016.7
20260830194819 79 238 3.0 7.0 0.00 0.22 0.22 74 1016.7
20260830194710 79 244 3.0 7.0 0.00 0.22 0.22 73 1016.8
20260830194635 79 253 3.0 5.0 0.00 0.22 0.22 73 1016.7
20260830194525 79 225 1.0 6.0 0.00 0.22 0.22 73 1016.6
20260830194415 80 275 1.0 6.0 0.00 0.22 0.22 73 1016.6
20260830194325 80 267 2.0 6.0 0.00 0.22 0.22 73 1016.6
20260830194155 80 234 2.0 6.0 0.00 0.22 0.22 73 1016.6
20260830194106 80 253 2.0 6.0 0.00 0.22 0.22 73 1016.6
20260830193953 80 190 2.0 6.0 0.00 0.22 0.22 73 1016.7
20260830193905 80 194 2.0 6.0 0.00 0.22 0.22 73 1016.7
20260830193755 80 226 3.0 6.0 0.00 0.22 0.22 72 1016.7
20260830193649 80 219 4.0 7.0 0.00 0.22 0.22 72 1016.7
20260830193600 80 243 3.0 7.0 0.00 0.22 0.22 72 1016.8
20260830193452 80 228 2.0 9.0 0.00 0.22 0.22 73 1016.8
20260830193401 80 245 2.0 9.0 0.00 0.22 0.22 72 1016.7
20260830193315 80 238 3.0 9.0 0.00 0.22 0.22 72 1016.7
20260830193223 80 246 3.0 9.0 0.00 0.22 0.22 72 1016.7
20260830193145 80 209 2.0 9.0 0.00 0.22 0.22 72 1016.7
20260830193013 80 257 3.0 9.0 0.00 0.22 0.22 71 1016.7
20260830192902 80 257 3.0 9.0 0.00 0.22 0.22 72 1016.6
20260830192813 80 227 3.0 9.0 0.00 0.22 0.22 72 1016.6
20260830192725 80 232 5.0 9.0 0.00 0.22 0.22 71 1016.6
20260830192557 80 231 4.0 9.0 0.00 0.22 0.22 71 1016.6
20260830192447 80 248 3.0 9.0 0.00 0.22 0.22 71 1016.6
20260830192400 80 229 3.0 9.0 0.00 0.22 0.22 72 1016.6
20260830192249 80 221 3.0 9.0 0.00 0.22 0.22 71 1016.6
20260830192201 80 235 4.0 9.0 0.00 0.22 0.22 71 1016.6
20260830192111 80 240 4.0 9.0 0.00 0.22 0.22 71 1016.6
20260830192000 80 200 3.0 9.0 0.00 0.22 0.22 71 1016.6
20260830191852 80 222 4.0 9.0 0.00 0.22 0.22 71 1016.6
20260830191803 80 254 5.0 9.0 0.00 0.22 0.22 70 1016.6
20260830191714 81 234 5.0 7.0 0.00 0.22 0.22 71 1016.7
20260830191618 81 253 5.0 7.0 0.00 0.22 0.22 71 1016.6
20260830191448 81 239 5.0 9.0 0.00 0.22 0.22 71 1016.6
20260830191359 81 230 4.0 9.0 0.00 0.22 0.22 72 1016.6
20260830191311 81 293 3.0 9.0 0.00 0.22 0.22 72 1016.5
20260830191221 81 272 3.0 9.0 0.00 0.22 0.22 72 1016.4
20260830191111 81 249 4.0 9.0 0.00 0.22 0.22 71 1016.5
20260830191023 81 184 4.0 12.0 0.00 0.22 0.22 71 1016.4
20260830190913 81 198 5.0 12.0 0.00 0.22 0.22 71 1016.4
20260830190823 81 256 4.0 12.0 0.00 0.22 0.22 70 1016.3
20260830190654 81 197 3.0 12.0 0.00 0.22 0.22 72 1016.3
20260830190547 81 162 2.0 12.0 0.00 0.22 0.22 72 1016.4
20260830190459 81 254 3.0 12.0 0.00 0.22 0.22 72 1016.4
20260830190350 81 194 5.0 12.0 0.00 0.22 0.22 71 1016.4
20260830190303 81 259 6.0 12.0 0.00 0.22 0.22 72 1016.4
20260830190152 81 253 5.0 11.0 0.00 0.22 0.22 72 1016.5
20260830190114 81 282 4.0 9.0 0.00 0.22 0.22 73 1016.5
20260830190004 81 98 4.0 8.0 0.00 0.22 0.22 73 1016.5
20260830185854 81 259 3.0 8.0 0.00 0.22 0.22 73 1016.5
20260830185805 81 275 2.0 8.0 0.00 0.22 0.22 73 1016.5
20260830185700 81 278 1.0 8.0 0.00 0.22 0.22 73 1016.5
20260830185549 81 59 2.0 10.0 0.00 0.22 0.22 72 1016.5
20260830185500 81 195 3.0 10.0 0.00 0.22 0.22 72 1016.4
20260830185411 81 157 3.0 10.0 0.00 0.22 0.22 73 1016.4
20260830185323 81 114 3.0 10.0 0.00 0.22 0.22 73 1016.4
20260830185234 81 262 5.0 12.0 0.00 0.22 0.22 72 1016.4
20260830185123 81 227 3.0 12.0 0.00 0.22 0.22 72 1016.5
20260830184954 81 278 2.0 12.0 0.00 0.22 0.22 74 1016.4
20260830184905 81 180 2.0 12.0 0.00 0.22 0.22 74 1016.5
20260830184755 81 139 5.0 14.0 0.00 0.22 0.22 73 1016.4
20260830184650 81 223 4.0 14.0 0.00 0.22 0.22 73 1016.5
20260830184612 81 157 4.0 14.0 0.00 0.22 0.22 73 1016.5
20260830184501 81 286 6.0 14.0 0.00 0.22 0.22 72 1016.5
20260830184351 81 232 7.0 14.0 0.00 0.22 0.22 72 1016.6
20260830184301 81 238 5.0 14.0 0.00 0.22 0.22 73 1016.7
20260830184151 81 105 4.0 14.0 0.00 0.22 0.22 72 1016.5
20260830184102 81 253 6.0 14.0 0.00 0.22 0.22 72 1016.6
20260830184012 81 274 4.0 14.0 0.00 0.22 0.22 73 1016.6
20260830183923 81 256 3.0 10.0 0.00 0.22 0.22 74 1016.6
20260830183757 81 165 3.0 10.0 0.00 0.22 0.22 74 1016.7
20260830183709 81 13 4.0 10.0 0.00 0.22 0.22 74 1016.7
20260830183618 81 246 4.0 10.0 0.00 0.22 0.22 73 1016.7
20260830183446 81 140 4.0 9.0 0.00 0.22 0.22 74 1016.7
20260830183357 81 244 4.0 9.0 0.00 0.22 0.22 74 1016.7
20260830183309 81 269 2.0 7.0 0.00 0.22 0.22 75 1016.7
20260830183219 81 140 2.0 9.0 0.00 0.22 0.22 75 1016.7
20260830183120 81 121 3.0 9.0 0.00 0.22 0.22 76 1016.8
20260830182949 81 163 3.0 9.0 0.00 0.22 0.22 75 1016.7
20260830182901 81 270 3.0 12.0 0.00 0.22 0.22 74 1016.8
20260830182812 81 258 3.0 12.0 0.00 0.22 0.22 75 1016.8
20260830182726 81 227 4.0 12.0 0.00 0.22 0.22 75 1016.8
20260830182556 80 234 3.0 12.0 0.00 0.22 0.22 74 1016.7
20260830182506 80 153 2.0 12.0 0.00 0.22 0.22 76 1016.8
20260830182416 80 211 3.0 12.0 0.00 0.22 0.22 75 1016.8
20260830182326 80 258 3.0 12.0 0.00 0.22 0.22 75 1016.8
20260830182155 80 222 4.0 12.0 0.00 0.22 0.22 76 1016.8
20260830182106 80 249 4.0 12.0 0.00 0.22 0.22 76 1016.8
20260830181956 80 172 4.0 10.0 0.00 0.22 0.22 75 1016.9
20260830181906 80 194 4.0 10.0 0.00 0.22 0.22 75 1016.9
20260830181818 80 241 3.0 10.0 0.00 0.22 0.22 75 1016.9
20260830181650 80 256 4.0 10.0 0.00 0.22 0.22 74 1016.9
20260830181613 80 251 5.0 10.0 0.00 0.22 0.22 74 1016.9
20260830181502 80 241 5.0 10.0 0.00 0.22 0.22 74 1016.9
20260830181354 80 246 6.0 11.0 0.00 0.22 0.22 74 1016.9
20260830181303 80 109 6.0 11.0 0.00 0.22 0.22 74 1016.9
20260830181155 80 225 6.0 11.0 0.00 0.22 0.22 75 1016.8
20260830181105 80 274 6.0 11.0 0.00 0.22 0.22 74 1016.9
20260830180957 80 227 5.0 11.0 0.00 0.22 0.22 76 1016.9
20260830180908 80 260 3.0 11.0 0.00 0.22 0.22 76 1016.9
20260830180824 80 138 4.0 11.0 0.00 0.22 0.22 76 1016.9
20260830180734 80 163 4.0 11.0 0.00 0.22 0.22 76 1016.8
20260830180644 80 150 5.0 10.0 0.00 0.22 0.22 75 1016.8
20260830180533 80 158 5.0 10.0 0.00 0.22 0.22 75 1016.8
20260830180424 80 223 5.0 10.0 0.00 0.22 0.22 75 1016.8
20260830180337 80 168 5.0 10.0 0.00 0.22 0.22 75 1016.7
20260830180246 80 198 4.0 9.0 0.00 0.22 0.22 76 1016.7
20260830180147 80 309 3.0 9.0 0.00 0.22 0.22 75 1016.7
20260830180015 80 194 4.0 9.0 0.00 0.22 0.22 75 1016.6
20260830175905 80 19 4.0 9.0 0.00 0.22 0.22 75 1016.5
20260830175756 80 141 2.0 9.0 0.00 0.22 0.22 76 1016.5
20260830175650 80 155 4.0 9.0 0.00 0.22 0.22 76 1016.5
20260830175600 80 153 4.0 9.0 0.00 0.22 0.22 77 1016.5
20260830175450 79 96 3.0 8.0 0.00 0.22 0.22 76 1016.5
20260830175400 79 279 3.0 8.0 0.00 0.22 0.22 76 1016.4
20260830175250 79 144 3.0 8.0 0.00 0.22 0.22 77 1016.4
20260830175200 79 218 3.0 8.0 0.00 0.22 0.22 77 1016.5
20260830175111 79 238 3.0 8.0 0.00 0.22 0.22 76 1016.4
20260830175022 79 163 3.0 8.0 0.00 0.22 0.22 77 1016.3
20260830174853 79 148 2.0 10.0 0.00 0.22 0.22 78 1016.4
20260830174747 79 360 2.0 10.0 0.00 0.22 0.22 78 1016.3
20260830174658 79 222 3.0 10.0 0.00 0.22 0.22 78 1016.3
20260830174619 79 232 3.0 10.0 0.00 0.22 0.22 79 1016.3
20260830174509 79 229 4.0 10.0 0.00 0.22 0.22 79 1016.3
20260830174419 78 164 4.0 11.0 0.00 0.22 0.22 79 1016.4
20260830174248 78 225 4.0 12.0 0.00 0.22 0.22 79 1016.4
20260830174200 78 149 4.0 12.0 0.00 0.22 0.22 79 1016.4
20260830174110 78 257 4.0 12.0 0.00 0.22 0.22 79 1016.4
20260830174001 78 142 4.0 12.0 0.00 0.22 0.22 79 1016.5
20260830173851 78 205 5.0 12.0 0.00 0.22 0.22 80 1016.4
20260830173802 78 146 4.0 12.0 0.00 0.22 0.22 79 1016.5
20260830173656 78 160 6.0 12.0 0.00 0.22 0.22 78 1016.5
20260830173548 78 222 6.0 12.0 0.00 0.22 0.22 79 1016.5
20260830173459 78 147 5.0 12.0 0.00 0.22 0.22 81 1016.5
20260830173348 78 202 4.0 8.0 0.00 0.22 0.22 80 1016.6
20260830173300 78 149 4.0 8.0 0.00 0.22 0.22 80 1016.6
20260830173150 78 189 4.0 8.0 0.00 0.22 0.22 81 1016.6
20260830173112 78 226 4.0 8.0 0.00 0.22 0.22 80 1016.6
20260830173003 78 150 4.0 8.0 0.00 0.22 0.22 81 1016.6
20260830172748 77 184 3.0 14.0 0.00 0.22 0.22 82 1016.7
20260830172700 77 144 3.0 14.0 0.00 0.22 0.22 81 1016.7
20260830172551 77 180 4.0 14.0 0.00 0.22 0.22 81 1016.6
20260830172501 77 143 4.0 14.0 0.00 0.22 0.22 81 1016.6
20260830172351 77 152 4.0 14.0 0.00 0.22 0.22 80 1016.6
20260830172305 77 209 5.0 14.0 0.00 0.22 0.22 80 1016.6
20260830172212 77 170 6.0 14.0 0.00 0.22 0.22 81 1016.6
20260830172101 77 156 5.0 14.0 0.00 0.22 0.22 81 1016.7
20260830172011 77 159 5.0 14.0 0.00 0.22 0.22 83 1016.7
20260830171921 77 171 4.0 8.0 0.00 0.22 0.22 83 1016.7
20260830171754 77 255 3.0 8.0 0.00 0.22 0.22 83 1016.6
20260830171705 77 134 3.0 8.0 0.00 0.22 0.22 83 1016.7
20260830171626 77 172 3.0 11.0 0.00 0.22 0.22 83 1016.7
20260830171456 76 155 3.0 12.0 0.00 0.22 0.22 84 1016.6
20260830171403 76 128 3.0 12.0 0.00 0.22 0.22 84 1016.7
20260830171253 76 144 4.0 12.0 0.00 0.22 0.22 84 1016.7
20260830171204 76 138 3.0 12.0 0.00 0.22 0.22 85 1016.6
20260830171054 76 297 3.0 12.0 0.00 0.22 0.22 85 1016.7
20260830170948 75 151 4.0 12.0 0.00 0.22 0.22 84 1016.8
20260830170858 75 121 5.0 12.0 0.00 0.22 0.22 84 1016.8
20260830170748 75 145 6.0 12.0 0.00 0.22 0.22 84 1016.7
20260830170659 75 155 6.0 11.0 0.00 0.22 0.22 85 1016.7
20260830170550 75 219 5.0 11.0 0.00 0.22 0.22 86 1016.9
20260830170500 75 178 3.0 12.0 0.00 0.22 0.22 86 1016.9
20260830170350 75 149 5.0 14.0 0.00 0.22 0.22 85 1016.9
20260830170302 75 173 5.0 14.0 0.00 0.22 0.22 85 1016.9
20260830170152 74 190 5.0 14.0 0.00 0.22 0.22 86 1016.9
20260830170117 74 147 5.0 14.0 0.00 0.22 0.22 85 1016.8
20260830165947 74 156 5.0 14.0 0.00 0.22 0.22 85 1016.9
20260830165858 74 163 5.0 14.0 0.00 0.22 0.22 86 1016.9
20260830165748 74 158 5.0 14.0 0.00 0.22 0.22 86 1016.9
20260830165658 74 113 6.0 14.0 0.00 0.22 0.22 86 1016.9
20260830165609 74 151 7.0 14.0 0.00 0.22 0.22 86 1016.9
20260830165519 74 161 7.0 14.0 0.00 0.22 0.22 86 1017.0
20260830165407 74 152 5.0 11.0 0.00 0.22 0.22 87 1017.1
20260830165320 74 157 5.0 11.0 0.00 0.22 0.22 87 1017.2
20260830165209 74 157 4.0 11.0 0.00 0.22 0.22 87 1017.2
20260830165059 74 134 5.0 11.0 0.00 0.22 0.22 87 1017.2
20260830164953 74 139 5.0 11.0 0.00 0.22 0.22 88 1017.2
20260830164903 73 151 5.0 11.0 0.00 0.22 0.22 88 1017.3
20260830164814 73 148 4.0 11.0 0.00 0.22 0.22 88 1017.3
20260830164702 73 188 4.0 11.0 0.00 0.22 0.22 88 1017.3
20260830164624 73 96 4.0 11.0 0.00 0.22 0.22 88 1017.3
20260830164515 73 180 4.0 8.0 0.00 0.22 0.22 89 1017.4
20260830164404 73 170 4.0 8.0 0.00 0.22 0.22 89 1017.4
20260830164254 73 153 4.0 8.0 0.00 0.22 0.22 89 1017.4
20260830164207 73 181 5.0 8.0 0.00 0.22 0.22 89 1017.3
20260830164117 72 148 5.0 8.0 0.00 0.22 0.22 89 1017.3
20260830163951 72 166 5.0 9.0 0.00 0.22 0.22 89 1017.4
20260830163901 72 169 5.0 9.0 0.00 0.22 0.22 89 1017.4
20260830163752 72 207 5.0 12.0 0.00 0.22 0.22 90 1017.5
20260830163702 72 152 4.0 14.0 0.00 0.22 0.22 90 1017.6
20260830163553 72 165 3.0 14.0 0.00 0.22 0.22 90 1017.7
20260830163505 72 160 4.0 14.0 0.00 0.22 0.22 90 1017.7
20260830163358 72 162 4.0 14.0 0.00 0.22 0.22 90 1017.7
20260830163247 71 149 4.0 14.0 0.00 0.22 0.22 90 1017.9
20260830163157 71 165 4.0 14.0 0.00 0.22 0.22 90 1017.9
20260830163122 71 200 5.0 14.0 0.00 0.22 0.22 90 1017.9
20260830163012 71 169 5.0 14.0 0.00 0.22 0.22 90 1018.0
20260830162923 71 149 4.0 13.0 0.00 0.22 0.22 91 1018.0
20260830162751 71 192 4.0 6.0 0.00 0.22 0.22 91 1018.0
20260830162702 71 169 3.0 11.0 0.00 0.22 0.22 91 1018.1
20260830162552 71 175 2.0 11.0 0.00 0.22 0.22 91 1018.0
20260830162502 71 171 3.0 11.0 0.00 0.22 0.22 91 1018.1
20260830162353 71 134 3.0 11.0 0.00 0.22 0.22 91 1018.1
20260830162306 71 117 2.0 11.0 0.00 0.22 0.22 91 1018.2
20260830162157 71 159 2.0 11.0 0.00 0.22 0.22 92 1018.1
20260830162047 71 157 4.0 11.0 0.00 0.22 0.22 92 1018.0
20260830161957 71 136 4.0 11.0 0.00 0.22 0.22 92 1018.0
20260830161848 71 140 4.0 12.0 0.00 0.22 0.22 92 1018.1
20260830161758 71 254 3.0 11.0 0.00 0.22 0.22 92 1018.1
20260830161648 71 150 3.0 11.0 0.00 0.22 0.22 92 1018.1
20260830161608 71 157 3.0 11.0 0.00 0.22 0.22 92 1018.1
20260830161458 70 165 3.0 11.0 0.00 0.22 0.22 92 1018.1
20260830161409 70 178 4.0 11.0 0.00 0.22 0.22 93 1018.1
20260830161259 70 78 4.0 11.0 0.00 0.22 0.22 93 1018.1
20260830161154 70 153 4.0 11.0 0.01 0.22 0.22 93 1018.1
20260830161105 70 159 4.0 11.0 0.01 0.22 0.22 93 1018.1
20260830161016 70 227 4.0 11.0 0.01 0.22 0.22 93 1018.1
20260830160907 70 155 3.0 11.0 0.02 0.22 0.22 93 1018.0
20260830160756 70 173 4.0 11.0 0.02 0.22 0.22 93 1018.0
20260830160647 70 166 4.0 11.0 0.02 0.22 0.22 93 1018.1
20260830160558 70 147 3.0 9.0 0.02 0.22 0.22 93 1018.1
20260830160448 70 158 3.0 9.0 0.02 0.22 0.22 93 1018.0
20260830160358 70 208 3.0 9.0 0.02 0.22 0.22 94 1018.0
20260830160314 70 188 4.0 9.0 0.02 0.22 0.22 94 1018.0
20260830160223 70 255 4.0 9.0 0.02 0.22 0.22 94 1018.0
20260830160146 70 146 4.0 9.0 0.02 0.22 0.22 94 1018.1
20260830160036 70 169 4.0 10.0 0.02 0.22 0.22 94 1018.0
20260830155945 69 253 3.0 10.0 0.03 0.22 0.22 94 1018.0
20260830155836 69 165 3.0 10.0 0.03 0.22 0.22 94 1017.9
20260830155726 69 189 3.0 10.0 0.03 0.22 0.22 94 1017.9
20260830155638 69 161 3.0 10.0 0.03 0.22 0.22 94 1017.9
20260830155527 69 157 3.0 10.0 0.04 0.22 0.22 95 1017.8
20260830155415 69 132 4.0 10.0 0.04 0.22 0.22 95 1017.9
20260830155306 69 157 5.0 10.0 0.04 0.22 0.22 94 1017.8
20260830155154 69 151 5.0 9.0 0.04 0.22 0.22 94 1017.9
20260830155048 69 155 5.0 10.0 0.05 0.22 0.22 94 1018.0
20260830154959 69 164 5.0 10.0 0.05 0.22 0.22 94 1018.0
20260830154909 69 153 4.0 11.0 0.05 0.22 0.22 95 1018.0
20260830154759 69 169 4.0 11.0 0.05 0.22 0.22 95 1018.0
20260830154649 68 162 4.0 11.0 0.05 0.22 0.22 95 1018.1
20260830154612 68 155 5.0 11.0 0.05 0.22 0.22 95 1018.0
20260830154502 68 157 5.0 11.0 0.06 0.22 0.22 95 1018.1
20260830154413 68 152 5.0 11.0 0.06 0.22 0.22 95 1018.0
20260830154323 68 147 5.0 11.0 0.06 0.22 0.22 95 1018.0
20260830154153 68 136 4.0 12.0 0.06 0.22 0.22 96 1018.0
20260830154047 68 151 5.0 12.0 0.07 0.22 0.22 95 1018.1
20260830153958 68 157 4.0 12.0 0.07 0.22 0.22 96 1018.1
20260830153848 68 146 3.0 12.0 0.07 0.22 0.22 95 1018.0
20260830153759 67 151 4.0 12.0 0.07 0.22 0.22 95 1018.0
20260830153650 67 169 5.0 12.0 0.08 0.22 0.22 95 1018.0
20260830153602 67 158 7.0 13.0 0.08 0.22 0.22 95 1018.0
20260830153452 67 159 5.0 13.0 0.08 0.22 0.22 95 1018.0
20260830153403 67 135 4.0 13.0 0.09 0.22 0.22 95 1018.0
20260830153258 67 167 5.0 13.0 0.09 0.22 0.22 95 1018.0
20260830153208 67 182 5.0 13.0 0.10 0.22 0.22 95 1018.0
20260830153108 67 134 4.0 13.0 0.10 0.22 0.22 95 1018.0
20260830152958 67 189 4.0 13.0 0.10 0.22 0.22 95 1018.0
20260830152849 67 177 6.0 15.0 0.10 0.22 0.22 95 1018.1
20260830152801 67 148 6.0 15.0 0.10 0.22 0.22 95 1018.1
20260830152650 67 163 5.0 15.0 0.10 0.22 0.22 95 1018.1
20260830152601 67 155 4.0 15.0 0.10 0.22 0.22 95 1018.2
20260830152450 67 150 4.0 15.0 0.10 0.22 0.22 95 1018.2
20260830152400 67 161 5.0 15.0 0.10 0.22 0.22 95 1018.3
20260830152254 67 168 6.0 15.0 0.11 0.22 0.22 95 1018.3
20260830152205 67 140 7.0 15.0 0.11 0.22 0.22 95 1018.3
20260830152055 67 150 7.0 15.0 0.11 0.22 0.22 95 1018.3
20260830152006 67 146 6.0 15.0 0.11 0.22 0.22 95 1018.2
20260830151917 67 154 6.0 14.0 0.11 0.22 0.22 95 1018.2
20260830151827 67 146 7.0 14.0 0.11 0.22 0.22 95 1018.2
20260830151656 67 188 8.0 14.0 0.12 0.22 0.22 95 1018.1
20260830151617 67 153 8.0 14.0 0.12 0.22 0.22 95 1018.2
20260830151508 67 158 7.0 14.0 0.12 0.22 0.22 95 1018.3
20260830151357 67 154 7.0 11.0 0.12 0.22 0.22 95 1018.3
20260830151251 67 153 7.0 11.0 0.11 0.21 0.21 95 1018.4
20260830151203 67 140 7.0 11.0 0.11 0.21 0.21 95 1018.5
20260830151054 67 145 7.0 11.0 0.12 0.21 0.21 95 1018.4
20260830151004 67 198 7.0 11.0 0.11 0.20 0.20 95 1018.5
20260830150854 67 151 7.0 11.0 0.11 0.20 0.20 95 1018.6
20260830150805 67 153 6.0 11.0 0.11 0.20 0.20 95 1018.7
20260830150656 67 144 4.0 11.0 0.11 0.20 0.20 95 1018.7
20260830150606 67 159 4.0 11.0 0.12 0.20 0.20 95 1018.8
20260830150501 67 140 5.0 11.0 0.12 0.20 0.20 95 1018.8
20260830150351 67 148 7.0 11.0 0.12 0.20 0.20 95 1018.9
20260830150300 67 148 8.0 11.0 0.12 0.20 0.20 95 1018.9
20260830150148 67 138 6.0 11.0 0.13 0.20 0.20 95 1018.9
20260830150111 67 136 5.0 10.0 0.13 0.20 0.20 95 1018.9
20260830150001 67 147 3.0 10.0 0.12 0.19 0.19 95 1019.2
20260830145911 67 145 3.0 10.0 0.12 0.19 0.19 95 1019.2
20260830145800 67 158 4.0 10.0 0.12 0.19 0.19 95 1019.4
20260830145650 67 160 4.0 10.0 0.13 0.19 0.19 95 1019.3
20260830145600 67 152 3.0 10.0 0.13 0.19 0.19 95 1019.4
20260830145454 67 146 4.0 10.0 0.12 0.18 0.18 95 1019.4
20260830145406 67 173 5.0 10.0 0.12 0.18 0.18 95 1019.3
20260830145317 67 148 4.0 11.0 0.12 0.18 0.18 95 1019.3
20260830145206 67 144 2.0 7.0 0.12 0.18 0.18 95 1019.4
20260830145117 67 150 2.0 7.0 0.11 0.17 0.17 95 1019.4
20260830145027 67 153 3.0 7.0 0.12 0.17 0.17 94 1019.3
20260830144937 67 148 3.0 7.0 0.12 0.17 0.17 94 1019.3
20260830144827 67 159 2.0 7.0 0.12 0.17 0.17 94 1019.2
20260830144716 67 160 3.0 7.0 0.12 0.17 0.17 94 1019.3
20260830144638 67 153 4.0 7.0 0.12 0.17 0.17 94 1019.3
20260830144447 67 152 3.0 7.0 0.12 0.16 0.16 94 1019.3
20260830144400 67 140 1.0 7.0 0.12 0.16 0.16 94 1019.3
20260830144311 67 191 1.0 7.0 0.12 0.16 0.16 94 1019.3
20260830144159 67 197 2.0 7.0 0.11 0.15 0.15 94 1019.3
20260830144111 67 161 1.0 7.0 0.11 0.15 0.15 94 1019.4
20260830144001 67 149 2.0 7.0 0.11 0.15 0.15 94 1019.4
20260830143852 67 138 2.0 7.0 0.11 0.15 0.15 94 1019.4
20260830143802 67 150 3.0 7.0 0.10 0.14 0.14 94 1019.5
20260830143653 67 153 2.0 7.0 0.10 0.14 0.14 94 1019.5
20260830143605 67 144 1.0 5.0 0.11 0.14 0.14 94 1019.5
20260830143456 67 162 1.0 5.0 0.10 0.13 0.13 94 1019.5
20260830143411 67 162 1.0 5.0 0.10 0.13 0.13 94 1019.6
20260830143322 67 167 1.0 5.0 0.10 0.13 0.13 94 1019.5
20260830143149 67 150 2.0 7.0 0.09 0.12 0.12 94 1019.5
20260830143112 67 151 2.0 7.0 0.09 0.12 0.12 94 1019.4
20260830143001 67 154 2.0 7.0 0.09 0.12 0.12 94 1019.4
20260830142914 67 150 2.0 7.0 0.09 0.12 0.12 94 1019.4
20260830142825 67 178 1.0 7.0 0.09 0.12 0.12 94 1019.2
20260830142655 67 157 2.0 7.0 0.09 0.12 0.12 94 1019.3
20260830142606 67 199 2.0 7.0 0.09 0.12 0.12 94 1019.3
20260830142455 67 208 3.0 7.0 0.09 0.12 0.12 94 1019.2
20260830142348 67 143 3.0 7.0 0.08 0.11 0.11 94 1019.2
20260830142258 67 159 3.0 7.0 0.08 0.11 0.11 94 1019.2
20260830142148 67 155 3.0 7.0 0.09 0.11 0.11 93 1019.2
20260830142058 67 148 2.0 6.0 0.09 0.11 0.11 93 1019.2
20260830141950 67 156 2.0 6.0 0.09 0.11 0.11 93 1019.3
20260830141900 67 174 2.0 6.0 0.09 0.11 0.11 93 1019.2
20260830141811 67 148 3.0 6.0 0.08 0.10 0.10 93 1019.2
20260830141700 67 154 3.0 6.0 0.08 0.10 0.10 93 1019.3
20260830141621 67 158 3.0 6.0 0.08 0.10 0.10 93 1019.3
20260830141512 67 153 2.0 5.0 0.08 0.10 0.10 93 1019.2
20260830141423 67 150 2.0 5.0 0.08 0.10 0.10 93 1019.4
20260830141258 67 163 2.0 5.0 0.08 0.10 0.10 93 1019.3
20260830141148 67 159 1.0 5.0 0.07 0.09 0.09 93 1019.4
20260830141058 67 152 1.0 5.0 0.07 0.09 0.09 93 1019.4
20260830141011 67 152 1.0 5.0 0.07 0.09 0.09 93 1019.5
20260830140922 67 154 1.0 5.0 0.07 0.09 0.09 93 1019.5
20260830140751 67 155 2.0 5.0 0.07 0.09 0.09 93 1019.5
20260830140702 67 159 2.0 5.0 0.07 0.08 0.08 93 1019.4
20260830140551 67 153 1.0 3.0 0.07 0.08 0.08 93 1019.4
20260830140447 67 146 0.0 0.0 0.07 0.08 0.08 93 1019.5
20260830140359 67 146 0.0 0.0 0.07 0.08 0.08 93 1019.5
20260830140248 67 146 0.0 0.0 0.06 0.07 0.07 92 1019.6
20260830140157 67 146 0.0 0.0 0.06 0.07 0.07 92 1019.6
20260830140120 67 146 0.0 0.0 0.06 0.07 0.07 92 1019.6
20260830135950 67 137 0.0 0.0 0.06 0.07 0.07 92 1019.6
20260830135901 67 137 0.0 0.0 0.06 0.07 0.07 92 1019.6
20260830135752 67 137 0.0 0.0 0.06 0.07 0.07 92 1019.6
20260830135704 67 137 0.0 0.0 0.05 0.06 0.06 92 1019.6
20260830135559 67 229 0.0 0.0 0.05 0.06 0.06 92 1019.6
20260830135449 67 160 0.0 0.0 0.05 0.06 0.06 92 1019.5
20260830135400 67 160 0.0 0.0 0.05 0.06 0.06 92 1019.5
20260830135251 67 160 0.0 0.0 0.05 0.06 0.06 92 1019.4
20260830135201 67 160 0.0 0.0 0.05 0.06 0.06 92 1019.4
20260830135112 67 160 0.0 0.0 0.05 0.06 0.06 91 1019.4
20260830135023 67 160 0.0 0.0 0.04 0.05 0.05 91 1019.4
20260830134854 68 160 0.0 0.0 0.04 0.05 0.05 91 1019.4
20260830134805 68 160 0.0 0.0 0.04 0.05 0.05 91 1019.4
20260830134702 68 160 0.0 0.0 0.04 0.05 0.05 91 1019.5
20260830134625 68 160 0.0 0.0 0.04 0.05 0.05 91 1019.4
20260830134455 68 191 0.0 0.0 0.03 0.04 0.04 91 1019.5
20260830134405 68 191 0.0 0.0 0.03 0.04 0.04 91 1019.4
20260830134317 68 191 0.0 0.0 0.03 0.04 0.04 91 1019.5
20260830134206 68 192 0.0 0.0 0.03 0.04 0.04 91 1019.4
20260830134118 68 192 0.0 0.0 0.03 0.04 0.04 91 1019.5
20260830133946 68 220 0.0 0.0 0.03 0.04 0.04 90 1019.5
20260830133857 68 220 0.0 0.0 0.03 0.04 0.04 90 1019.5
20260830133748 68 220 0.0 0.0 0.03 0.04 0.04 90 1019.5
20260830133703 68 220 0.0 0.0 0.02 0.03 0.03 90 1019.5
20260830133554 68 220 0.0 0.0 0.02 0.03 0.03 90 1019.5
20260830133505 68 220 0.0 0.0 0.02 0.03 0.03 90 1019.5
20260830133356 68 220 0.0 0.0 0.02 0.03 0.03 90 1019.6
20260830133309 68 220 0.0 0.0 0.02 0.03 0.03 90 1019.5
20260830133207 68 220 0.0 0.0 0.02 0.03 0.03 90 1019.6
20260830133108 68 220 0.0 0.0 0.02 0.03 0.03 90 1019.5
20260830132958 68 220 0.0 0.0 0.02 0.03 0.03 89 1019.5
20260830132847 68 220 0.0 0.0 0.02 0.03 0.03 90 1019.4
20260830132757 68 220 0.0 0.0 0.02 0.03 0.03 90 1019.4
20260830132651 68 220 0.0 0.0 0.02 0.03 0.03 89 1019.3
20260830132601 68 220 0.0 0.0 0.02 0.03 0.03 90 1019.3
20260830132452 68 220 0.0 0.0 0.02 0.03 0.03 89 1019.4
20260830132402 68 220 0.0 0.0 0.02 0.03 0.03 89 1019.4
20260830132252 68 220 0.0 0.0 0.01 0.02 0.02 89 1019.4
20260830132203 68 220 0.0 0.0 0.01 0.02 0.02 89 1019.4
20260830132054 68 220 0.0 1.0 0.01 0.02 0.02 89 1019.3
20260830132004 68 220 0.0 1.0 0.01 0.02 0.02 89 1019.3
20260830131856 68 220 0.0 1.0 0.01 0.02 0.02 89 1019.4
20260830131751 69 220 0.0 1.0 0.01 0.02 0.02 88 1019.4
20260830131700 69 220 0.0 2.0 0.01 0.02 0.02 88 1019.3
20260830131622 69 220 0.0 2.0 0.01 0.02 0.02 88 1019.3
20260830131453 69 220 0.0 2.0 0.01 0.02 0.02 88 1019.3
20260830131402 69 220 0.0 2.0 0.01 0.02 0.02 88 1019.3
20260830131254 69 220 0.0 2.0 0.01 0.02 0.02 88 1019.3
20260830131204 69 220 0.0 3.0 0.01 0.02 0.02 88 1019.3
20260830131115 69 220 1.0 3.0 0.01 0.02 0.02 88 1019.3
20260830131004 69 231 1.0 3.0 0.01 0.02 0.02 88 1019.4
20260830130859 69 231 1.0 3.0 0.01 0.02 0.02 88 1019.3
20260830130748 69 231 1.0 3.0 0.00 0.01 0.01 88 1019.3
20260830130659 69 212 0.0 3.0 0.00 0.01 0.01 88 1019.3
20260830130549 69 212 0.0 3.0 0.00 0.01 0.01 87 1019.2
20260830130501 69 212 1.0 3.0 0.00 0.01 0.01 87 1019.2
20260830130412 69 292 2.0 3.0 0.00 0.01 0.01 87 1019.2
20260830130303 69 285 2.0 3.0 0.00 0.01 0.01 87 1019.1
20260830130213 69 275 1.0 3.0 0.00 0.01 0.01 87 1019.0
20260830130135 69 243 1.0 3.0 0.00 0.01 0.01 87 1018.9
20260830130003 69 243 1.0 3.0 0.00 0.01 0.01 86 1019.0
20260830125858 69 243 1.0 3.0 0.00 0.01 0.01 86 1018.8
20260830125750 69 243 1.0 3.0 0.00 0.01 0.01 86 1018.8
20260830125700 69 156 0.0 3.0 0.00 0.01 0.01 86 1018.7
20260830125549 69 155 0.0 3.0 0.00 0.01 0.01 86 1018.7
20260830125502 69 140 0.0 3.0 0.00 0.01 0.01 86 1018.7
20260830125351 69 140 1.0 3.0 0.00 0.01 0.01 86 1018.7
20260830125305 69 227 1.0 3.0 0.00 0.01 0.01 86 1018.6
20260830125153 69 227 0.0 3.0 0.00 0.01 0.01 86 1018.6
20260830125047 69 140 0.0 3.0 0.00 0.01 0.01 86 1018.7
20260830124959 69 140 1.0 3.0 0.00 0.01 0.01 86 1018.7
20260830124849 69 236 1.0 3.0 0.00 0.01 0.01 86 1018.6
20260830124801 69 242 1.0 2.0 0.00 0.01 0.01 86 1018.5
20260830124649 69 250 0.0 3.0 0.00 0.01 0.01 86 1018.5
20260830124612 69 213 0.0 3.0 0.00 0.01 0.01 86 1018.5
20260830124502 69 154 0.0 3.0 0.00 0.01 0.01 86 1018.4
20260830124352 69 211 1.0 3.0 0.00 0.01 0.01 86 1018.4
20260830124303 69 211 1.0 3.0 0.00 0.01 0.01 86 1018.5
20260830124153 69 204 1.0 3.0 0.00 0.01 0.01 86 1018.4
20260830124048 69 218 1.0 3.0 0.00 0.01 0.01 86 1018.5
20260830123959 69 225 1.0 3.0 0.00 0.01 0.01 86 1018.5
20260830123850 69 215 1.0 3.0 0.00 0.01 0.01 85 1018.5
20260830123800 69 225 1.0 4.0 0.00 0.01 0.01 85 1018.5
20260830123710 69 250 0.0 4.0 0.00 0.01 0.01 85 1018.4
20260830123600 69 187 0.0 4.0 0.00 0.01 0.01 85 1018.4
20260830123450 69 128 0.0 4.0 0.00 0.01 0.01 85 1018.4
20260830123402 69 142 0.0 4.0 0.00 0.01 0.01 85 1018.4
20260830123254 69 323 0.0 5.0 0.00 0.01 0.01 85 1018.4
20260830123208 69 323 1.0 5.0 0.00 0.01 0.01 85 1018.4
20260830123130 69 322 1.0 5.0 0.00 0.01 0.01 85 1018.3
20260830123020 69 259 2.0 5.0 0.00 0.01 0.01 85 1018.2
20260830122850 69 227 1.0 5.0 0.00 0.01 0.01 85 1018.3
20260830122800 69 205 1.0 5.0 0.00 0.01 0.01 86 1018.3
20260830122711 69 209 2.0 5.0 0.00 0.01 0.01 85 1018.3
20260830122601 69 99 3.0 5.0 0.00 0.01 0.01 85 1018.2
20260830122451 69 192 2.0 5.0 0.00 0.01 0.01 85 1018.3
20260830122401 69 154 2.0 5.0 0.00 0.01 0.01 86 1018.3
20260830122253 69 229 1.0 6.0 0.00 0.01 0.01 86 1018.3
20260830122208 69 229 2.0 6.0 0.00 0.01 0.01 86 1018.3
20260830122119 69 229 3.0 6.0 0.00 0.01 0.01 86 1018.3
20260830122009 69 249 2.0 6.0 0.00 0.01 0.01 86 1018.2
20260830121858 69 240 1.0 4.0 0.00 0.01 0.01 86 1018.1
20260830121748 69 142 2.0 4.0 0.00 0.01 0.01 86 1018.2
20260830121700 69 236 2.0 4.0 0.00 0.01 0.01 86 1018.2
20260830121620 69 267 2.0 4.0 0.00 0.01 0.01 86 1018.1
20260830121450 69 294 1.0 7.0 0.00 0.01 0.01 86 1018.2
20260830121400 69 294 2.0 7.0 0.00 0.01 0.01 86 1018.1
20260830121310 69 226 2.0 7.0 0.00 0.01 0.01 86 1018.2
20260830121222 69 216 1.0 7.0 0.00 0.01 0.01 86 1018.0
20260830121055 69 152 2.0 7.0 0.00 0.01 0.01 86 1018.1
20260830121006 69 146 2.0 7.0 0.00 0.01 0.01 86 1018.0
20260830120856 69 230 3.0 7.0 0.00 0.01 0.01 87 1018.0
20260830120806 69 234 3.0 7.0 0.00 0.01 0.01 86 1018.0
20260830120658 69 219 2.0 4.0 0.00 0.01 0.01 86 1018.0
20260830120548 69 259 1.0 4.0 0.00 0.01 0.01 87 1017.8
20260830120457 68 223 1.0 4.0 0.00 0.01 0.01 87 1017.8
20260830120348 68 226 1.0 4.0 0.00 0.01 0.01 87 1017.7
20260830120306 68 226 1.0 4.0 0.00 0.01 0.01 87 1017.7
20260830120154 68 134 1.0 4.0 0.00 0.01 0.01 87 1017.6
20260830120116 68 161 1.0 4.0 0.00 0.01 0.01 87 1017.6
20260830115947 68 250 1.0 4.0 0.00 0.01 0.01 87 1017.5
20260830115857 68 182 1.0 4.0 0.00 0.01 0.01 87 1017.5
20260830115749 68 302 1.0 4.0 0.00 0.01 0.01 87 1017.5
20260830115700 68 176 1.0 4.0 0.00 0.01 0.01 87 1017.4
20260830115550 68 209 0.0 4.0 0.00 0.01 0.01 87 1017.4
20260830115501 68 209 0.0 5.0 0.00 0.01 0.01 87 1017.4
20260830115356 68 209 1.0 5.0 0.00 0.01 0.01 87 1017.3
20260830115246 68 258 1.0 5.0 0.00 0.01 0.01 87 1017.3
20260830115158 68 137 2.0 5.0 0.00 0.01 0.01 87 1017.3
20260830115049 68 113 2.0 5.0 0.00 0.01 0.01 87 1017.3
20260830115001 68 247 2.0 5.0 0.00 0.01 0.01 87 1017.4
20260830114911 68 159 2.0 5.0 0.00 0.01 0.01 87 1017.3
20260830114821 68 355 1.0 5.0 0.00 0.01 0.01 88 1017.3
20260830114652 68 169 0.0 4.0 0.00 0.01 0.01 87 1017.4
20260830114615 68 211 1.0 4.0 0.00 0.01 0.01 88 1017.3
20260830114508 68 211 1.0 4.0 0.00 0.01 0.01 88 1017.3
20260830114418 68 147 1.0 6.0 0.00 0.01 0.01 88 1017.4
20260830114248 68 157 0.0 6.0 0.00 0.01 0.01 88 1017.3
20260830114158 68 344 0.0 6.0 0.00 0.01 0.01 88 1017.3
20260830114108 68 355 0.0 6.0 0.00 0.01 0.01 88 1017.3
20260830113959 68 218 1.0 6.0 0.00 0.01 0.01 88 1017.3
20260830113850 68 210 2.0 6.0 0.00 0.01 0.01 88 1017.3
20260830113800 68 270 2.0 6.0 0.00 0.01 0.01 88 1017.3
20260830113651 68 205 2.0 6.0 0.00 0.01 0.01 88 1017.3
20260830113601 68 220 2.0 6.0 0.00 0.01 0.01 89 1017.3
20260830113456 67 163 2.0 5.0 0.00 0.01 0.01 89 1017.3
20260830113407 67 248 2.0 5.0 0.00 0.01 0.01 89 1017.2
20260830113258 67 233 2.0 4.0 0.00 0.01 0.01 89 1017.2
20260830113208 67 302 1.0 5.0 0.00 0.01 0.01 89 1017.2
20260830113108 67 153 2.0 5.0 0.00 0.01 0.01 89 1017.2
20260830112958 67 252 1.0 5.0 0.00 0.01 0.01 89 1017.2
20260830112849 67 63 2.0 5.0 0.00 0.01 0.01 89 1017.0
20260830112759 67 300 2.0 5.0 0.00 0.01 0.01 89 1017.0
20260830112650 67 151 1.0 5.0 0.00 0.01 0.01 89 1016.9
20260830112600 67 337 1.0 5.0 0.00 0.01 0.01 89 1017.0
20260830112516 67 347 1.0 5.0 0.00 0.01 0.01 89 1016.9
20260830112426 67 193 1.0 5.0 0.00 0.01 0.01 89 1016.8
20260830112317 67 250 1.0 5.0 0.00 0.01 0.01 89 1016.9
20260830112146 67 150 1.0 3.0 0.00 0.01 0.01 89 1016.8
20260830112058 67 81 1.0 5.0 0.00 0.01 0.01 89 1016.8
20260830112008 67 263 0.0 5.0 0.00 0.01 0.01 89 1016.9
20260830111859 67 148 0.0 5.0 0.00 0.01 0.01 89 1016.9
20260830111750 67 200 0.0 5.0 0.00 0.01 0.01 89 1016.8
20260830111700 67 217 0.0 5.0 0.00 0.01 0.01 89 1016.8
20260830111624 67 212 0.0 5.0 0.00 0.01 0.01 89 1016.8
20260830111458 67 180 1.0 5.0 0.00 0.01 0.01 89 1016.9
20260830111410 67 228 2.0 5.0 0.00 0.01 0.01 89 1016.8
20260830111300 67 148 2.0 5.0 0.00 0.01 0.01 89 1016.8
20260830111151 67 275 2.0 8.0 0.00 0.01 0.01 89 1016.7
20260830111101 67 135 1.0 8.0 0.00 0.01 0.01 89 1016.7
20260830111013 67 189 1.0 8.0 0.00 0.01 0.01 89 1016.7
20260830110903 67 130 1.0 8.0 0.00 0.01 0.01 89 1016.7
20260830110754 67 161 1.0 8.0 0.00 0.01 0.01 89 1016.7
20260830110704 67 43 2.0 8.0 0.00 0.01 0.01 89 1016.7
20260830110616 67 209 2.0 8.0 0.00 0.01 0.01 89 1016.7
20260830110448 67 223 2.0 8.0 0.00 0.01 0.01 89 1016.7
20260830110359 67 163 3.0 8.0 0.00 0.01 0.01 89 1016.7
20260830110310 67 165 2.0 5.0 0.00 0.01 0.01 89 1016.8
20260830110219 67 155 2.0 5.0 0.00 0.01 0.01 89 1016.8
20260830110141 67 157 2.0 5.0 0.00 0.01 0.01 89 1016.8
20260830110010 67 153 2.0 4.0 0.00 0.01 0.01 89 1016.8
20260830105920 67 178 2.0 3.0 0.00 0.01 0.01 89 1016.9
20260830105751 67 184 2.0 4.0 0.00 0.01 0.01 89 1016.9
20260830105701 67 220 2.0 4.0 0.00 0.01 0.01 89 1016.9
20260830105611 67 244 1.0 4.0 0.00 0.01 0.01 89 1017.0
20260830105501 67 252 0.0 4.0 0.00 0.01 0.01 89 1017.0
20260830105356 67 210 1.0 4.0 0.00 0.01 0.01 89 1016.9
20260830105247 67 150 1.0 4.0 0.00 0.01 0.01 89 1017.0
20260830105157 67 137 1.0 4.0 0.00 0.01 0.01 89 1017.0
20260830105047 67 221 1.0 4.0 0.00 0.01 0.01 89 1016.9
20260830104958 67 327 1.0 4.0 0.00 0.01 0.01 89 1016.9
20260830104847 67 58 1.0 5.0 0.00 0.01 0.01 89 1016.9
20260830104757 67 157 1.0 5.0 0.00 0.01 0.01 89 1016.9
20260830104648 67 119 1.0 5.0 0.00 0.01 0.01 89 1016.9
20260830104610 67 141 1.0 5.0 0.00 0.01 0.01 89 1016.8
20260830104504 67 156 1.0 5.0 0.00 0.01 0.01 89 1016.9
20260830104415 67 202 1.0 5.0 0.00 0.01 0.01 89 1016.8
20260830104304 67 182 0.0 5.0 0.00 0.01 0.01 89 1016.8
20260830104155 67 134 1.0 5.0 0.00 0.01 0.01 89 1016.8
20260830104104 67 182 1.0 5.0 0.00 0.01 0.01 89 1016.8
20260830104015 67 232 2.0 5.0 0.00 0.01 0.01 89 1016.8
20260830103905 67 98 2.0 5.0 0.00 0.01 0.01 88 1016.8
20260830103815 67 111 2.0 5.0 0.00 0.01 0.01 88 1016.8
20260830103726 67 163 3.0 5.0 0.00 0.01 0.01 88 1016.8
20260830103636 67 146 3.0 6.0 0.00 0.01 0.01 88 1016.8
20260830103524 67 182 3.0 5.0 0.00 0.01 0.01 88 1016.8
20260830103437 67 137 2.0 5.0 0.00 0.01 0.01 88 1016.8
20260830103309 67 158 2.0 5.0 0.00 0.01 0.01 88 1016.9
20260830103218 67 200 1.0 4.0 0.00 0.01 0.01 88 1016.9
20260830103119 67 169 1.0 4.0 0.00 0.01 0.01 88 1017.0
20260830102949 67 159 1.0 4.0 0.00 0.01 0.01 88 1017.0
20260830102900 67 216 1.0 4.0 0.00 0.01 0.01 88 1017.0
20260830102751 67 128 1.0 4.0 0.00 0.01 0.01 88 1017.0
20260830102703 67 230 1.0 5.0 0.00 0.01 0.01 88 1017.0
20260830102553 67 156 1.0 5.0 0.00 0.01 0.01 88 1017.1
20260830102504 67 108 1.0 5.0 0.00 0.01 0.01 88 1017.1
20260830102358 67 95 1.0 5.0 0.00 0.01 0.01 88 1017.0
20260830102250 67 237 2.0 5.0 0.00 0.01 0.01 88 1017.1
20260830102201 67 249 1.0 5.0 0.00 0.01 0.01 88 1017.1
20260830102050 67 144 1.0 5.0 0.00 0.01 0.01 88 1017.1
20260830102001 67 227 2.0 5.0 0.00 0.01 0.01 88 1017.0
20260830101851 67 146 2.0 5.0 0.00 0.01 0.01 88 1017.0
20260830101802 67 202 2.0 5.0 0.00 0.01 0.01 88 1017.0
20260830101651 67 167 2.0 5.0 0.00 0.01 0.01 88 1017.0
20260830101612 67 298 1.0 4.0 0.00 0.01 0.01 88 1017.0
20260830101505 67 234 1.0 4.0 0.00 0.01 0.01 88 1017.0
20260830101415 67 169 1.0 4.0 0.00 0.01 0.01 88 1017.0
20260830101306 67 201 2.0 6.0 0.00 0.01 0.01 88 1017.0
20260830101157 67 203 1.0 6.0 0.00 0.01 0.01 88 1016.9
20260830101048 67 169 1.0 6.0 0.00 0.01 0.01 88 1017.0
20260830100959 67 247 2.0 6.0 0.00 0.01 0.01 88 1017.0
20260830100908 67 154 1.0 6.0 0.00 0.01 0.01 88 1017.0
20260830100818 67 158 1.0 9.0 0.00 0.01 0.01 88 1017.0
20260830100647 67 180 2.0 9.0 0.00 0.01 0.01 88 1017.0
20260830100557 67 169 3.0 9.0 0.00 0.01 0.01 88 1017.0
20260830100513 67 180 3.0 9.0 0.00 0.01 0.01 88 1017.0
20260830100423 67 164 3.0 9.0 0.00 0.01 0.01 88 1016.9
20260830100336 67 154 3.0 9.0 0.00 0.01 0.01 88 1016.9
20260830100223 67 207 3.0 9.0 0.00 0.01 0.01 88 1016.9
20260830100123 67 173 3.0 9.0 0.00 0.01 0.01 88 1016.9
20260830095953 67 151 4.0 9.0 0.00 0.01 0.01 88 1016.9
20260830095904 67 147 4.0 8.0 0.00 0.01 0.01 88 1016.9
20260830095755 67 147 3.0 8.0 0.00 0.01 0.01 88 1016.9
20260830095706 67 151 3.0 8.0 0.00 0.01 0.01 88 1017.1
20260830095616 67 163 2.0 5.0 0.00 0.01 0.01 88 1017.1
20260830095451 67 132 2.0 5.0 0.00 0.01 0.01 88 1017.1
20260830095402 67 171 2.0 4.0 0.00 0.01 0.01 88 1017.2
20260830095252 67 208 1.0 5.0 0.00 0.01 0.01 87 1017.2
20260830095203 68 165 1.0 5.0 0.00 0.01 0.01 87 1017.2
20260830095114 68 148 2.0 5.0 0.01 0.01 0.01 87 1017.1
20260830095025 68 209 2.0 5.0 0.01 0.01 0.01 87 1017.2
20260830094854 68 150 2.0 3.0 0.01 0.01 0.01 87 1017.1
20260830094805 68 169 2.0 3.0 0.01 0.01 0.01 87 1017.1
20260830094656 68 163 2.0 3.0 0.01 0.01 0.01 87 1017.2
20260830094618 68 183 2.0 4.0 0.01 0.01 0.01 87 1017.2
20260830094451 68 180 1.0 4.0 0.01 0.01 0.01 87 1017.3
20260830094403 68 152 1.0 3.0 0.01 0.01 0.01 87 1017.3
20260830094252 68 187 1.0 3.0 0.01 0.01 0.01 87 1017.4
20260830094203 68 187 0.0 3.0 0.01 0.01 0.01 87 1017.3
20260830094114 68 173 0.0 5.0 0.01 0.01 0.01 87 1017.4
20260830094026 68 119 1.0 5.0 0.01 0.01 0.01 86 1017.5
20260830093856 68 203 1.0 5.0 0.01 0.01 0.01 86 1017.5
20260830093747 68 156 1.0 6.0 0.01 0.01 0.01 86 1017.4
20260830093658 68 246 1.0 6.0 0.01 0.01 0.01 86 1017.4
20260830093548 68 93 0.0 6.0 0.01 0.01 0.01 86 1017.4
20260830093501 68 227 1.0 6.0 0.01 0.01 0.01 86 1017.4
20260830093351 68 223 2.0 6.0 0.01 0.01 0.01 86 1017.4
20260830093304 68 157 2.0 6.0 0.01 0.01 0.01 86 1017.4
20260830093154 68 250 1.0 6.0 0.01 0.01 0.01 86 1017.4
20260830093115 68 171 1.0 6.0 0.01 0.01 0.01 86 1017.4
20260830093006 68 178 2.0 6.0 0.01 0.01 0.01 86 1017.4
20260830092855 68 169 2.0 6.0 0.01 0.01 0.01 86 1017.3
20260830092805 68 146 2.0 6.0 0.01 0.01 0.01 86 1017.3
20260830092656 68 213 2.0 6.0 0.01 0.01 0.01 86 1017.4
20260830092549 68 149 2.0 6.0 0.01 0.01 0.01 86 1017.4
20260830092501 68 157 2.0 6.0 0.01 0.01 0.01 86 1017.4
20260830092411 68 213 2.0 6.0 0.01 0.01 0.01 86 1017.4
20260830092321 68 152 2.0 6.0 0.01 0.01 0.01 86 1017.4
20260830092151 68 163 2.0 6.0 0.01 0.01 0.01 86 1017.4
20260830092102 68 155 2.0 6.0 0.01 0.01 0.01 86 1017.5
20260830091954 68 228 2.0 8.0 0.01 0.01 0.01 86 1017.4
20260830091904 68 146 2.0 8.0 0.01 0.01 0.01 86 1017.5
20260830091754 68 163 2.0 8.0 0.01 0.01 0.01 86 1017.4
20260830091710 68 150 2.0 8.0 0.01 0.01 0.01 86 1017.4
20260830091633 68 157 2.0 8.0 0.01 0.01 0.01 86 1017.5
20260830091523 68 194 2.0 8.0 0.01 0.01 0.01 86 1017.4
20260830091434 68 128 2.0 8.0 0.01 0.01 0.01 86 1017.4
20260830091341 68 179 4.0 8.0 0.01 0.01 0.01 86 1017.4
20260830091230 68 149 4.0 8.0 0.01 0.01 0.01 86 1017.3
20260830091120 68 159 2.0 8.0 0.01 0.01 0.01 86 1017.4
20260830091009 68 148 2.0 8.0 0.01 0.01 0.01 86 1017.4
20260830090919 68 154 3.0 11.0 0.01 0.01 0.01 86 1017.4
20260830090747 68 159 3.0 11.0 0.01 0.01 0.01 86 1017.4
20260830090658 68 140 3.0 11.0 0.01 0.01 0.01 86 1017.4
20260830090553 68 154 2.0 11.0 0.01 0.01 0.01 86 1017.5
20260830090503 68 165 3.0 11.0 0.01 0.01 0.01 86 1017.5
20260830090355 68 171 3.0 11.0 0.01 0.01 0.01 86 1017.5
20260830090307 68 159 3.0 11.0 0.01 0.01 0.01 86 1017.4
20260830090217 68 179 4.0 11.0 0.01 0.01 0.01 86 1017.5
20260830090120 68 146 5.0 11.0 0.01 0.01 0.01 86 1017.5
20260830085949 68 157 4.0 10.0 0.01 0.01 0.01 86 1017.4
20260830085900 68 153 4.0 10.0 0.01 0.01 0.01 86 1017.5
20260830085751 68 154 4.0 10.0 0.01 0.01 0.01 86 1017.5
20260830085647 68 138 3.0 9.0 0.01 0.01 0.01 86 1017.5
20260830085557 68 195 4.0 9.0 0.01 0.01 0.01 86 1017.5
20260830085448 68 180 4.0 9.0 0.01 0.01 0.01 86 1017.4
20260830085358 68 170 3.0 8.0 0.01 0.01 0.01 86 1017.4
20260830085311 68 155 3.0 8.0 0.01 0.01 0.01 86 1017.4
20260830085222 68 150 4.0 8.0 0.01 0.01 0.01 86 1017.5
20260830085133 68 154 4.0 8.0 0.00 0.00 0.00 86 1017.6
20260830085023 68 158 3.0 8.0 0.00 0.00 0.00 86 1017.5
20260830084913 68 154 3.0 8.0 0.00 0.00 0.00 86 1017.7
20260830084822 68 156 3.0 8.0 0.00 0.00 0.00 86 1017.6
20260830084652 68 152 2.0 5.0 0.00 0.00 0.00 86 1017.7
20260830084618 68 153 2.0 5.0 0.00 0.00 0.00 86 1017.9
20260830084508 68 167 1.0 3.0 0.00 0.00 0.00 86 1018.1
20260830084357 68 205 1.0 3.0 0.00 0.00 0.00 85 1018.1
20260830084247 68 132 1.0 3.0 0.00 0.00 0.00 85 1018.0
20260830084158 68 221 0.0 3.0 0.00 0.00 0.00 85 1018.0
20260830084049 68 221 1.0 3.0 0.00 0.00 0.00 85 1018.0
20260830083959 68 131 1.0 3.0 0.00 0.00 0.00 85 1018.0
20260830083849 68 271 1.0 2.0 0.00 0.00 0.00 85 1018.0
20260830083800 68 257 0.0 2.0 0.00 0.00 0.00 85 1018.0
20260830083711 68 207 0.0 2.0 0.00 0.00 0.00 85 1018.0
20260830083605 68 207 1.0 2.0 0.00 0.00 0.00 85 1018.0
20260830083515 68 210 1.0 5.0 0.00 0.00 0.00 85 1018.0
20260830083404 68 184 1.0 5.0 0.00 0.00 0.00 85 1017.9
20260830083256 68 151 1.0 5.0 0.00 0.00 0.00 85 1018.0
20260830083206 68 155 1.0 5.0 0.00 0.00 0.00 84 1018.0
20260830083128 68 241 1.0 5.0 0.00 0.00 0.00 84 1018.0
20260830083018 68 220 1.0 5.0 0.00 0.00 0.00 84 1018.0
20260830082908 69 165 1.0 5.0 0.00 0.00 0.00 84 1017.9
20260830082818 69 194 1.0 5.0 0.00 0.00 0.00 84 1017.9
20260830082709 68 168 1.0 4.0 0.00 0.00 0.00 84 1018.0
20260830082619 68 152 0.0 2.0 0.00 0.00 0.00 84 1018.0
20260830082508 69 189 1.0 2.0 0.00 0.00 0.00 84 1018.0
20260830082402 68 171 1.0 2.0 0.00 0.00 0.00 84 1018.0
20260830082313 68 205 1.0 2.0 0.00 0.00 0.00 84 1018.0
20260830082223 68 155 1.0 2.0 0.00 0.00 0.00 84 1018.0
20260830082051 68 206 0.0 2.0 0.00 0.00 0.00 84 1018.0
20260830082003 68 155 0.0 2.0 0.00 0.00 0.00 84 1018.0
20260830081913 68 155 1.0 2.0 0.00 0.00 0.00 84 1018.1
20260830081802 68 155 0.0 2.0 0.00 0.00 0.00 84 1018.1
20260830081651 68 168 0.0 2.0 0.00 0.00 0.00 84 1018.1
20260830081615 68 168 0.0 2.0 0.00 0.00 0.00 84 1018.1
20260830081506 68 168 1.0 3.0 0.00 0.00 0.00 84 1018.2
20260830081400 68 168 0.0 3.0 0.00 0.00 0.00 84 1018.1
20260830081312 68 151 0.0 3.0 0.00 0.00 0.00 84 1018.2
20260830081202 68 151 1.0 3.0 0.00 0.00 0.00 84 1018.1
20260830081053 68 151 1.0 3.0 0.00 0.00 0.00 84 1018.1
20260830081005 68 151 0.0 3.0 0.00 0.00 0.00 84 1018.1
20260830080855 68 151 0.0 3.0 0.00 0.00 0.00 84 1018.1
20260830080805 69 151 1.0 3.0 0.00 0.00 0.00 84 1018.1
20260830080657 69 151 2.0 3.0 0.00 0.00 0.00 84 1018.0
20260830080609 69 151 3.0 3.0 0.00 0.00 0.00 84 1017.9
20260830080521 69 151 2.0 3.0 0.00 0.00 0.00 84 1018.0
20260830080354 69 151 1.0 2.0 0.00 0.00 0.00 84 1018.0
20260830080307 69 151 1.0 2.0 0.00 0.00 0.00 84 1018.1
20260830080156 69 230 0.0 3.0 0.00 0.00 0.00 84 1018.1
20260830080119 69 230 0.0 3.0 0.00 0.00 0.00 84 1018.0
20260830075948 69 230 0.0 3.0 0.00 0.00 0.00 84 1018.0
20260830075858 69 230 0.0 3.0 0.00 0.00 0.00 84 1018.0
20260830075749 69 230 0.0 3.0 0.00 0.00 0.00 83 1018.0
20260830075658 69 230 0.0 3.0 0.00 0.00 0.00 83 1018.0
20260830075554 69 230 0.0 3.0 0.00 0.00 0.00 83 1018.0
20260830075504 69 230 1.0 5.0 0.00 0.00 0.00 83 1018.0
20260830075354 69 230 1.0 5.0 0.00 0.00 0.00 83 1018.1
20260830075306 69 164 0.0 5.0 0.00 0.00 0.00 83 1018.1
20260830075215 69 164 0.0 7.0 0.00 0.00 0.00 83 1018.0
20260830075127 69 164 1.0 7.0 0.00 0.00 0.00 83 1017.9
20260830074957 69 164 1.0 7.0 0.00 0.00 0.00 83 1017.8
20260830074848 69 150 2.0 7.0 0.00 0.00 0.00 83 1017.8
20260830074758 69 148 2.0 7.0 0.00 0.00 0.00 83 1017.8
20260830074708 69 134 2.0 7.0 0.00 0.00 0.00 83 1017.8
20260830074634 69 160 2.0 7.0 0.00 0.00 0.00 83 1017.7
20260830074503 69 156 3.0 7.0 0.00 0.00 0.00 83 1017.7
20260830074354 69 156 2.0 7.0 0.00 0.00 0.00 83 1017.7
20260830074303 69 164 2.0 6.0 0.00 0.00 0.00 83 1017.7
20260830074154 69 154 1.0 4.0 0.00 0.00 0.00 83 1017.7
20260830074104 69 157 1.0 4.0 0.00 0.00 0.00 83 1017.8
20260830074014 69 167 1.0 4.0 0.00 0.00 0.00 83 1017.7
20260830073924 69 147 1.0 4.0 0.00 0.00 0.00 83 1017.8
20260830073755 69 159 1.0 4.0 0.00 0.00 0.00 83 1017.8
20260830073649 69 148 1.0 5.0 0.00 0.00 0.00 83 1017.7
20260830073559 69 169 1.0 5.0 0.00 0.00 0.00 83 1017.8
20260830073449 69 169 1.0 5.0 0.00 0.00 0.00 83 1017.7
20260830073400 69 169 1.0 5.0 0.00 0.00 0.00 83 1017.7
20260830073312 69 169 1.0 5.0 0.00 0.00 0.00 83 1017.7
20260830073221 69 155 1.0 5.0 0.00 0.00 0.00 83 1017.6
20260830073122 69 157 1.0 5.0 0.00 0.00 0.00 83 1017.6
20260830072951 69 159 2.0 5.0 0.00 0.00 0.00 83 1017.6
20260830072901 69 159 2.0 5.0 0.00 0.00 0.00 83 1017.5
20260830072751 69 175 2.0 5.0 0.00 0.00 0.00 83 1017.5
20260830072647 69 145 1.0 4.0 0.00 0.00 0.00 83 1017.5
20260830072557 69 147 1.0 4.0 0.00 0.00 0.00 83 1017.5
20260830072509 69 169 2.0 7.0 0.00 0.00 0.00 83 1017.5
20260830072359 69 167 2.0 7.0 0.00 0.00 0.00 83 1017.6
20260830072250 69 155 2.0 7.0 0.00 0.00 0.00 83 1017.6
20260830072200 69 163 3.0 7.0 0.00 0.00 0.00 83 1017.6
20260830072051 69 158 2.0 7.0 0.00 0.00 0.00 83 1017.5
20260830072001 69 205 2.0 7.0 0.00 0.00 0.00 83 1017.6
20260830071853 69 153 2.0 7.0 0.00 0.00 0.00 83 1017.6
20260830071808 69 153 2.0 7.0 0.00 0.00 0.00 83 1017.6
20260830071720 69 147 3.0 7.0 0.00 0.00 0.00 83 1017.6
20260830071641 69 151 2.0 6.0 0.00 0.00 0.00 83 1017.5
20260830071449 69 198 2.0 3.0 0.00 0.00 0.00 83 1017.6
20260830071401 69 153 2.0 3.0 0.00 0.00 0.00 83 1017.6
20260830071252 69 226 1.0 3.0 0.00 0.00 0.00 83 1017.5
20260830071202 69 164 1.0 3.0 0.00 0.00 0.00 83 1017.6
20260830071113 69 159 1.0 4.0 0.00 0.00 0.00 83 1017.6
20260830071024 69 147 1.0 5.0 0.00 0.00 0.00 83 1017.5
20260830070854 69 223 2.0 10.0 0.00 0.00 0.00 83 1017.5
20260830070809 69 163 2.0 10.0 0.00 0.00 0.00 83 1017.5
20260830070659 69 149 2.0 10.0 0.00 0.00 0.00 83 1017.5
20260830070550 69 174 1.0 10.0 0.00 0.00 0.00 83 1017.5
20260830070459 69 186 2.0 10.0 0.00 0.00 0.00 83 1017.5
20260830070350 69 158 2.0 10.0 0.00 0.00 0.00 83 1017.5
20260830070303 69 161 2.0 10.0 0.00 0.00 0.00 83 1017.4
20260830070212 69 150 3.0 10.0 0.00 0.00 0.00 83 1017.4
20260830070113 69 159 3.0 10.0 0.00 0.00 0.00 83 1017.4
20260830070002 69 169 2.0 7.0 0.00 0.00 0.00 84 1017.4
20260830065913 69 169 3.0 7.0 0.00 0.00 0.00 83 1017.4
20260830065801 69 154 3.0 7.0 0.00 0.00 0.00 84 1017.4
20260830065657 69 169 3.0 7.0 0.00 0.00 0.00 84 1017.4
20260830065607 69 154 3.0 7.0 0.00 0.00 0.00 84 1017.4
20260830065456 69 158 2.0 7.0 0.00 0.00 0.00 84 1017.5
20260830065347 69 152 3.0 7.0 0.00 0.00 0.00 84 1017.4
20260830065257 69 150 3.0 7.0 0.00 0.00 0.00 84 1017.4
20260830065150 69 157 2.0 5.0 0.00 0.00 0.00 84 1017.5
20260830065101 69 157 2.0 5.0 0.00 0.00 0.00 84 1017.5
20260830064951 69 148 1.0 5.0 0.00 0.00 0.00 84 1017.5
20260830064905 69 150 1.0 5.0 0.00 0.00 0.00 84 1017.5
20260830064758 69 162 2.0 5.0 0.00 0.00 0.00 84 1017.6
20260830064649 69 143 2.0 5.0 0.00 0.00 0.00 84 1017.7
20260830064611 69 140 2.0 5.0 0.00 0.00 0.00 84 1017.7
20260830064503 69 161 1.0 5.0 0.00 0.00 0.00 84 1017.6
20260830064415 69 158 1.0 5.0 0.00 0.00 0.00 84 1017.6
20260830064304 69 158 2.0 5.0 0.00 0.00 0.00 84 1017.7
20260830064153 69 152 1.0 6.0 0.00 0.00 0.00 84 1017.6
20260830064104 69 157 2.0 6.0 0.00 0.00 0.00 84 1017.7
20260830064001 69 165 2.0 5.0 0.00 0.00 0.00 84 1017.7
20260830063850 69 146 2.0 6.0 0.00 0.00 0.00 84 1017.7
20260830063802 69 142 2.0 6.0 0.00 0.00 0.00 84 1017.6
20260830063653 69 161 2.0 6.0 0.00 0.00 0.00 84 1017.6
20260830063603 69 150 2.0 6.0 0.00 0.00 0.00 84 1017.7
20260830063454 69 150 2.0 6.0 0.00 0.00 0.00 84 1017.7
20260830063407 69 182 1.0 6.0 0.00 0.00 0.00 84 1017.7
20260830063314 69 158 1.0 8.0 0.00 0.00 0.00 84 1017.7
20260830063201 69 158 2.0 8.0 0.00 0.00 0.00 84 1017.7
20260830063109 69 161 2.0 8.0 0.00 0.00 0.00 84 1017.6
20260830062959 69 150 2.0 8.0 0.00 0.00 0.00 84 1017.6
20260830062850 69 148 2.0 8.0 0.00 0.00 0.00 84 1017.7
20260830062802 69 158 2.0 8.0 0.00 0.00 0.00 84 1017.7
20260830062712 69 178 2.0 8.0 0.00 0.00 0.00 84 1017.7
20260830062602 69 147 2.0 8.0 0.00 0.00 0.00 84 1017.7
20260830062513 69 158 3.0 8.0 0.00 0.00 0.00 84 1017.7
20260830062402 69 159 2.0 5.0 0.00 0.00 0.00 84 1017.6
20260830062313 69 181 2.0 4.0 0.00 0.00 0.00 84 1017.6
20260830062202 69 209 2.0 5.0 0.00 0.00 0.00 84 1017.7
20260830062053 69 152 2.0 5.0 0.00 0.00 0.00 84 1017.7
20260830061947 69 159 3.0 4.0 0.00 0.00 0.00 84 1017.7
20260830061900 69 153 3.0 5.0 0.00 0.00 0.00 84 1017.7
20260830061750 69 155 2.0 5.0 0.00 0.00 0.00 84 1017.6
20260830061702 69 150 2.0 5.0 0.00 0.00 0.00 84 1017.7
20260830061623 69 142 2.0 5.0 0.00 0.00 0.00 84 1017.7
20260830061454 69 167 3.0 5.0 0.00 0.00 0.00 84 1017.7
20260830061404 69 185 2.0 6.0 0.00 0.00 0.00 84 1017.6
20260830061253 69 210 2.0 6.0 0.00 0.00 0.00 84 1017.6
20260830061147 69 136 2.0 6.0 0.00 0.00 0.00 84 1017.6
20260830061058 69 150 2.0 6.0 0.00 0.00 0.00 85 1017.6
20260830060949 69 151 1.0 6.0 0.00 0.00 0.00 85 1017.7
20260830060859 69 154 2.0 6.0 0.00 0.00 0.00 85 1017.7
20260830060750 69 162 2.0 6.0 0.00 0.00 0.00 85 1017.8
20260830060701 69 150 2.0 6.0 0.00 0.00 0.00 85 1017.8
20260830060611 69 162 2.0 6.0 0.00 0.00 0.00 85 1017.8
20260830060500 69 163 2.0 5.0 0.00 0.00 0.00 85 1017.8
20260830060411 69 167 2.0 5.0 0.00 0.00 0.00 85 1017.9
20260830060302 69 160 2.0 5.0 0.00 0.00 0.00 85 1017.9
20260830060207 69 154 3.0 5.0 0.00 0.00 0.00 85 1017.8
20260830060109 69 176 2.0 5.0 0.00 0.00 0.00 85 1018.0
20260830055958 69 196 2.0 6.0 0.00 0.00 0.00 85 1017.8
20260830055848 69 160 3.0 6.0 0.00 0.00 0.00 85 1017.9
20260830055758 69 167 3.0 5.0 0.00 0.00 0.00 85 1017.9
20260830055648 69 153 2.0 5.0 0.00 0.00 0.00 85 1018.0
20260830055559 69 155 2.0 5.0 0.00 0.00 0.00 85 1018.0
20260830055449 69 150 2.0 6.0 0.00 0.00 0.00 85 1018.0
20260830055359 69 153 2.0 7.0 0.00 0.00 0.00 85 1017.9
20260830055309 69 173 2.0 7.0 0.00 0.00 0.00 85 1018.0
20260830055204 69 154 2.0 7.0 0.00 0.00 0.00 85 1018.0
20260830055114 69 171 2.0 7.0 0.00 0.00 0.00 85 1018.0
20260830055003 69 163 2.0 7.0 0.00 0.00 0.00 85 1018.0
20260830054855 69 159 3.0 7.0 0.00 0.00 0.00 85 1018.0
20260830054804 69 153 3.0 7.0 0.00 0.00 0.00 85 1018.0
20260830054656 69 158 3.0 7.0 0.00 0.00 0.00 85 1018.0
20260830054619 69 157 3.0 7.0 0.00 0.00 0.00 85 1018.0
20260830054508 69 144 2.0 5.0 0.00 0.00 0.00 85 1018.1
20260830054357 69 148 2.0 5.0 0.00 0.00 0.00 85 1018.1
20260830054248 69 160 2.0 5.0 0.00 0.00 0.00 85 1018.0
20260830054203 69 161 2.0 5.0 0.00 0.00 0.00 85 1018.0
20260830054054 69 162 2.0 5.0 0.00 0.00 0.00 86 1018.0
20260830054005 69 147 1.0 5.0 0.00 0.00 0.00 86 1018.0
20260830053915 69 189 1.0 5.0 0.00 0.00 0.00 86 1018.0
20260830053827 69 175 1.0 5.0 0.00 0.00 0.00 86 1018.0
20260830053716 69 156 2.0 6.0 0.00 0.00 0.00 86 1018.0
20260830053627 69 155 2.0 7.0 0.00 0.00 0.00 86 1018.1
20260830053457 69 153 1.0 7.0 0.00 0.00 0.00 86 1018.1
20260830053348 69 153 1.0 7.0 0.00 0.00 0.00 86 1018.1
20260830053301 69 178 1.0 7.0 0.00 0.00 0.00 86 1018.0
20260830053215 69 161 2.0 7.0 0.00 0.00 0.00 86 1018.0
20260830053116 69 156 2.0 7.0 0.00 0.00 0.00 86 1018.1
20260830053006 69 160 2.0 7.0 0.00 0.00 0.00 86 1018.1
20260830052856 69 184 2.0 7.0 0.00 0.00 0.00 86 1018.2
20260830052806 69 168 2.0 7.0 0.00 0.00 0.00 86 1018.2
20260830052717 69 162 2.0 6.0 0.00 0.00 0.00 86 1018.3
20260830052626 69 220 2.0 6.0 0.00 0.00 0.00 86 1018.2
20260830052456 69 151 2.0 6.0 0.00 0.00 0.00 86 1018.2
20260830052346 69 183 1.0 6.0 0.00 0.00 0.00 86 1018.3
20260830052258 69 189 1.0 6.0 0.00 0.00 0.00 87 1018.3
20260830052153 69 169 1.0 5.0 0.00 0.00 0.00 87 1018.3
20260830052104 69 173 1.0 5.0 0.00 0.00 0.00 87 1018.3
20260830052016 69 166 1.0 5.0 0.00 0.00 0.00 87 1018.3
20260830051927 69 152 2.0 5.0 0.00 0.00 0.00 87 1018.3
20260830051756 69 139 1.0 5.0 0.00 0.00 0.00 87 1018.3
20260830051647 69 160 1.0 5.0 0.00 0.00 0.00 87 1018.3
20260830051610 69 164 2.0 5.0 0.00 0.00 0.00 87 1018.3
20260830051457 69 150 2.0 5.0 0.00 0.00 0.00 87 1018.3
20260830051407 69 153 2.0 5.0 0.00 0.00 0.00 87 1018.2
20260830051317 69 158 2.0 4.0 0.00 0.00 0.00 87 1018.2
20260830051210 69 150 2.0 4.0 0.00 0.00 0.00 87 1018.3
20260830051101 69 150 2.0 4.0 0.00 0.00 0.00 87 1018.3
20260830051011 69 167 1.0 4.0 0.00 0.00 0.00 87 1018.3
20260830050924 69 163 1.0 4.0 0.00 0.00 0.00 88 1018.3
20260830050814 69 146 1.0 3.0 0.00 0.00 0.00 88 1018.3
20260830050702 69 164 1.0 3.0 0.00 0.00 0.00 88 1018.3
20260830050553 69 155 2.0 3.0 0.00 0.00 0.00 88 1018.4
20260830050503 69 165 2.0 3.0 0.00 0.00 0.00 88 1018.3
20260830050353 69 183 1.0 3.0 0.00 0.00 0.00 88 1018.4
20260830050306 69 153 1.0 3.0 0.00 0.00 0.00 88 1018.4
20260830050159 69 161 1.0 3.0 0.00 0.00 0.00 88 1018.5
20260830050120 69 157 1.0 3.0 0.00 0.00 0.00 88 1018.4
20260830045950 69 153 1.0 3.0 0.00 0.00 0.00 88 1018.5
20260830045900 69 153 1.0 3.0 0.00 0.00 0.00 88 1018.5
20260830045750 69 157 1.0 3.0 0.00 0.00 0.00 88 1018.4
20260830045700 69 159 1.0 5.0 0.00 0.00 0.00 88 1018.4
20260830045612 69 165 1.0 5.0 0.00 0.00 0.00 88 1018.4
20260830045522 69 175 1.0 5.0 0.00 0.00 0.00 88 1018.3
20260830045412 69 167 2.0 5.0 0.00 0.00 0.00 88 1018.4
20260830045305 69 175 2.0 5.0 0.00 0.00 0.00 88 1018.5
20260830045151 69 150 1.0 6.0 0.00 0.00 0.00 88 1018.5
20260830045105 69 155 1.0 6.0 0.00 0.00 0.00 88 1018.4
20260830045016 69 155 1.0 6.0 0.00 0.00 0.00 88 1018.5
20260830044927 69 165 2.0 6.0 0.00 0.00 0.00 88 1018.5
20260830044756 69 178 2.0 6.0 0.00 0.00 0.00 88 1018.5
20260830044648 69 153 1.0 6.0 0.00 0.00 0.00 88 1018.5
20260830044611 69 157 2.0 6.0 0.00 0.00 0.00 88 1018.5
20260830044500 69 159 2.0 6.0 0.00 0.00 0.00 88 1018.4
20260830044410 69 157 3.0 6.0 0.00 0.00 0.00 88 1018.5
20260830044300 69 148 3.0 5.0 0.00 0.00 0.00 88 1018.5
20260830044150 69 153 2.0 5.0 0.00 0.00 0.00 88 1018.5
20260830044106 69 155 2.0 5.0 0.00 0.00 0.00 88 1018.5
20260830043957 69 155 1.0 5.0 0.00 0.00 0.00 88 1018.6
20260830043907 69 155 1.0 4.0 0.00 0.00 0.00 88 1018.7
20260830043817 69 153 1.0 4.0 0.00 0.00 0.00 88 1018.7
20260830043648 69 153 1.0 4.0 0.00 0.00 0.00 88 1018.7
20260830043558 69 140 1.0 4.0 0.00 0.00 0.00 88 1018.7
20260830043509 69 184 0.0 3.0 0.00 0.00 0.00 88 1018.8
20260830043420 69 152 1.0 3.0 0.00 0.00 0.00 88 1018.8
20260830043332 69 152 1.0 5.0 0.00 0.00 0.00 88 1018.7
20260830043241 69 153 1.0 6.0 0.00 0.00 0.00 89 1018.7
20260830043141 69 238 1.0 6.0 0.00 0.00 0.00 88 1018.6
20260830043015 69 142 1.0 6.0 0.00 0.00 0.00 89 1018.7
20260830042925 69 156 1.0 6.0 0.00 0.00 0.00 89 1018.6
20260830042755 69 173 2.0 6.0 0.00 0.00 0.00 89 1018.6
20260830042706 69 159 2.0 6.0 0.00 0.00 0.00 89 1018.6
20260830042618 69 153 1.0 6.0 0.00 0.00 0.00 89 1018.6
20260830042448 69 165 1.0 6.0 0.00 0.00 0.00 89 1018.6
20260830042359 69 165 1.0 6.0 0.00 0.00 0.00 89 1018.6
20260830042310 69 175 1.0 3.0 0.00 0.00 0.00 89 1018.6
20260830042159 69 166 1.0 3.0 0.00 0.00 0.00 89 1018.7
20260830042051 69 135 1.0 3.0 0.00 0.00 0.00 89 1018.6
20260830042005 69 136 1.0 3.0 0.00 0.00 0.00 89 1018.6
20260830041857 69 151 1.0 3.0 0.00 0.00 0.00 89 1018.6
20260830041748 69 151 1.0 3.0 0.00 0.00 0.00 89 1018.7
20260830041700 69 151 1.0 5.0 0.00 0.00 0.00 89 1018.6
20260830041623 69 151 1.0 5.0 0.00 0.00 0.00 89 1018.6
20260830041513 69 151 1.0 5.0 0.00 0.00 0.00 89 1018.6
20260830041424 69 151 1.0 5.0 0.00 0.00 0.00 89 1018.7
20260830041314 69 140 1.0 5.0 0.00 0.00 0.00 89 1018.7
20260830041224 69 153 1.0 5.0 0.00 0.00 0.00 89 1018.8
20260830041054 69 153 1.0 5.0 0.00 0.00 0.00 88 1018.7
20260830040948 69 148 1.0 5.0 0.00 0.00 0.00 88 1018.7
20260830040857 69 148 2.0 5.0 0.00 0.00 0.00 88 1018.8
20260830040808 69 148 1.0 5.0 0.00 0.00 0.00 88 1018.7
20260830040719 69 149 1.0 5.0 0.00 0.00 0.00 88 1018.8
20260830040549 69 146 1.0 5.0 0.00 0.00 0.00 88 1018.8
20260830040500 69 157 1.0 5.0 0.00 0.00 0.00 88 1018.9
20260830040350 69 153 1.0 5.0 0.00 0.00 0.00 88 1018.9
20260830040303 69 151 1.0 5.0 0.00 0.00 0.00 88 1018.9
20260830040147 69 157 1.0 5.0 0.00 0.00 0.00 88 1018.8
20260830040037 69 156 1.0 5.0 0.00 0.00 0.00 88 1018.8
20260830035918 69 155 1.0 3.0 0.00 0.00 0.00 88 1018.9
20260830035748 69 155 1.0 3.0 0.00 0.00 0.00 88 1018.9
20260830035657 69 155 1.0 3.0 0.00 0.00 0.00 88 1018.9
20260830035548 69 155 1.0 5.0 0.00 0.00 0.00 88 1018.8
20260830035458 69 155 1.0 5.0 0.00 0.00 0.00 88 1018.8
20260830035350 69 155 1.0 5.0 0.00 0.00 0.00 88 1018.8
20260830035301 69 153 1.0 5.0 0.00 0.00 0.00 88 1018.8
20260830035157 69 149 2.0 5.0 0.00 0.00 0.00 88 1018.8
20260830035048 69 151 1.0 5.0 0.00 0.00 0.00 88 1018.8
20260830034958 69 149 1.0 5.0 0.00 0.00 0.00 88 1018.8
20260830034848 69 149 2.0 5.0 0.00 0.00 0.00 88 1018.7
20260830034759 69 149 2.0 5.0 0.00 0.00 0.00 88 1018.7
20260830034650 69 149 2.0 5.0 0.00 0.00 0.00 88 1018.7
20260830034614 69 149 2.0 5.0 0.00 0.00 0.00 88 1018.7
20260830034504 69 149 2.0 5.0 0.00 0.00 0.00 88 1018.7
20260830034354 69 149 2.0 5.0 0.00 0.00 0.00 88 1018.8
20260830034248 69 149 2.0 5.0 0.00 0.00 0.00 88 1018.9
20260830034158 69 149 1.0 4.0 0.00 0.00 0.00 88 1018.9
20260830034049 69 148 1.0 3.0 0.00 0.00 0.00 88 1018.8
20260830033959 69 148 1.0 3.0 0.00 0.00 0.00 88 1018.8
20260830033848 69 157 1.0 3.0 0.00 0.00 0.00 88 1018.8
20260830033801 69 157 1.0 3.0 0.00 0.00 0.00 88 1018.8
20260830033711 69 157 1.0 3.0 0.00 0.00 0.00 88 1018.8
20260830033622 69 153 1.0 3.0 0.00 0.00 0.00 88 1018.8
20260830033512 69 150 1.0 3.0 0.00 0.00 0.00 88 1018.8
20260830033423 69 151 2.0 3.0 0.00 0.00 0.00 88 1018.9
20260830033259 69 157 2.0 5.0 0.00 0.00 0.00 88 1018.9
20260830033147 69 158 1.0 5.0 0.00 0.00 0.00 88 1018.9
20260830033109 69 156 1.0 5.0 0.00 0.00 0.00 88 1018.9
20260830032958 69 156 1.0 5.0 0.00 0.00 0.00 88 1018.8
20260830032848 69 156 1.0 5.0 0.00 0.00 0.00 88 1018.9
20260830032800 69 154 1.0 5.0 0.00 0.00 0.00 88 1018.9
20260830032649 69 154 1.0 5.0 0.00 0.00 0.00 88 1018.9
20260830032600 69 154 1.0 5.0 0.00 0.00 0.00 88 1018.9
20260830032456 69 154 1.0 5.0 0.00 0.00 0.00 88 1018.9
20260830032406 69 151 1.0 5.0 0.00 0.00 0.00 88 1018.9
20260830032257 69 151 1.0 5.0 0.00 0.00 0.00 88 1018.8
20260830032208 69 151 1.0 5.0 0.00 0.00 0.00 88 1018.8
20260830032117 70 151 1.0 5.0 0.00 0.00 0.00 88 1018.8
20260830031948 70 151 1.0 5.0 0.00 0.00 0.00 88 1018.8
20260830031858 70 151 1.0 5.0 0.00 0.00 0.00 88 1018.8
20260830031749 70 175 1.0 5.0 0.00 0.00 0.00 88 1018.9
20260830031700 70 155 2.0 5.0 0.00 0.00 0.00 88 1018.9
20260830031623 70 155 2.0 4.0 0.00 0.00 0.00 88 1018.8
20260830031456 70 148 1.0 3.0 0.00 0.00 0.00 88 1018.8
20260830031406 70 148 1.0 3.0 0.00 0.00 0.00 88 1018.8
20260830031316 70 148 1.0 3.0 0.00 0.00 0.00 88 1018.8
20260830031227 70 148 1.0 3.0 0.00 0.00 0.00 88 1018.8
20260830031117 70 148 1.0 3.0 0.00 0.00 0.00 88 1018.7
20260830031006 70 144 1.0 3.0 0.00 0.00 0.00 88 1018.7
20260830030857 70 134 1.0 3.0 0.00 0.00 0.00 88 1018.8
20260830030748 70 153 1.0 5.0 0.00 0.00 0.00 88 1018.8
20260830030659 70 153 0.0 5.0 0.00 0.00 0.00 88 1018.8
20260830030610 70 153 0.0 5.0 0.00 0.00 0.00 88 1018.8
20260830030504 70 153 0.0 5.0 0.00 0.00 0.00 88 1018.8
20260830030413 70 153 0.0 5.0 0.00 0.00 0.00 88 1018.8
20260830030326 70 153 0.0 5.0 0.00 0.00 0.00 88 1018.7
20260830030237 70 153 1.0 5.0 0.00 0.00 0.00 88 1018.8
20260830030137 70 153 1.0 5.0 0.00 0.00 0.00 88 1018.7
20260830030026 70 153 1.0 5.0 0.00 0.00 0.00 88 1018.7
20260830025915 70 149 0.0 5.0 0.00 0.00 0.00 88 1018.7
20260830025827 70 149 1.0 5.0 0.00 0.00 0.00 88 1018.7
20260830025657 70 175 1.0 5.0 0.00 0.00 0.00 88 1018.7
20260830025608 70 175 1.0 5.0 0.00 0.00 0.00 88 1018.8
20260830025519 70 175 1.0 5.0 0.00 0.00 0.00 88 1018.7
20260830025352 70 175 1.0 5.0 0.00 0.00 0.00 88 1018.8
20260830025306 70 175 1.0 5.0 0.00 0.00 0.00 88 1018.8
20260830025154 70 175 1.0 4.0 0.00 0.00 0.00 88 1018.7
20260830025106 70 147 1.0 3.0 0.00 0.00 0.00 88 1018.8
20260830024956 70 147 1.0 3.0 0.00 0.00 0.00 88 1018.7
20260830024848 70 187 0.0 3.0 0.00 0.00 0.00 88 1018.7
20260830024758 70 148 0.0 3.0 0.00 0.00 0.00 88 1018.7
20260830024647 70 148 1.0 3.0 0.00 0.00 0.00 88 1018.7
20260830024610 70 148 1.0 3.0 0.00 0.00 0.00 87 1018.7
20260830024504 70 175 1.0 3.0 0.00 0.00 0.00 87 1018.6
20260830024355 70 135 1.0 5.0 0.00 0.00 0.00 87 1018.7
20260830024306 70 165 1.0 5.0 0.00 0.00 0.00 87 1018.7
20260830024216 70 173 1.0 5.0 0.00 0.00 0.00 87 1018.7
20260830024128 70 154 1.0 5.0 0.00 0.00 0.00 87 1018.6
20260830024018 70 154 1.0 5.0 0.00 0.00 0.00 87 1018.7
20260830023847 70 154 1.0 5.0 0.00 0.00 0.00 87 1018.7
20260830023757 70 153 1.0 5.0 0.00 0.00 0.00 87 1018.7
20260830023647 70 149 1.0 5.0 0.00 0.00 0.00 87 1018.6
20260830023558 70 157 2.0 5.0 0.00 0.00 0.00 87 1018.6
20260830023513 70 156 2.0 5.0 0.00 0.00 0.00 87 1018.7
20260830023425 70 154 1.0 4.0 0.00 0.00 0.00 88 1018.7
20260830023257 70 154 1.0 4.0 0.00 0.00 0.00 87 1018.7
20260830023206 70 154 2.0 4.0 0.00 0.00 0.00 88 1018.8
20260830023127 70 154 2.0 4.0 0.00 0.00 0.00 88 1018.8
20260830022957 70 146 1.0 4.0 0.00 0.00 0.00 87 1018.8
20260830022849 70 168 2.0 4.0 0.00 0.00 0.00 88 1018.8
20260830022759 70 128 2.0 4.0 0.00 0.00 0.00 87 1018.8
20260830022649 70 128 2.0 4.0 0.00 0.00 0.00 87 1018.7
20260830022603 70 128 2.0 4.0 0.00 0.00 0.00 87 1018.7
20260830022513 70 143 2.0 5.0 0.00 0.00 0.00 87 1018.8
20260830022405 70 143 2.0 5.0 0.00 0.00 0.00 87 1018.8
20260830022256 70 143 2.0 5.0 0.00 0.00 0.00 87 1018.8
20260830022148 70 143 2.0 5.0 0.00 0.00 0.00 87 1018.7
20260830022058 70 143 2.0 5.0 0.00 0.00 0.00 87 1018.7
20260830021948 70 143 2.0 5.0 0.00 0.00 0.00 87 1018.8
20260830021859 70 142 2.0 5.0 0.00 0.00 0.00 87 1018.8
20260830021749 70 149 3.0 4.0 0.00 0.00 0.00 87 1018.6
20260830021705 70 145 2.0 4.0 0.00 0.00 0.00 87 1018.6
20260830021627 70 152 2.0 5.0 0.00 0.00 0.00 87 1018.7
20260830021457 70 155 2.0 5.0 0.00 0.00 0.00 87 1018.7
20260830021407 70 144 2.0 4.0 0.00 0.00 0.00 87 1018.7
20260830021319 70 150 2.0 5.0 0.00 0.00 0.00 87 1018.7
20260830021149 70 134 3.0 5.0 0.00 0.00 0.00 87 1018.7
20260830021100 70 130 3.0 5.0 0.00 0.00 0.00 87 1018.7
20260830020951 70 126 3.0 5.0 0.00 0.00 0.00 87 1018.6
20260830020902 70 145 3.0 5.0 0.00 0.00 0.00 87 1018.7
20260830020757 70 130 3.0 5.0 0.00 0.00 0.00 87 1018.7
20260830020708 70 130 3.0 5.0 0.00 0.00 0.00 87 1018.7
20260830020619 70 130 3.0 7.0 0.00 0.00 0.00 87 1018.6
20260830020449 70 157 3.0 7.0 0.00 0.00 0.00 87 1018.6
20260830020401 70 137 3.0 7.0 0.00 0.00 0.00 87 1018.6
20260830020253 70 121 2.0 7.0 0.00 0.00 0.00 87 1018.6
20260830020202 71 159 2.0 7.0 0.00 0.00 0.00 87 1018.6
20260830020126 71 153 2.0 7.0 0.00 0.00 0.00 87 1018.4
20260830015955 71 142 3.0 7.0 0.00 0.00 0.00 87 1018.5
20260830015848 71 144 4.0 7.0 0.00 0.00 0.00 86 1018.5
20260830015759 71 130 4.0 7.0 0.00 0.00 0.00 86 1018.5
20260830015648 71 134 3.0 5.0 0.00 0.00 0.00 86 1018.4
20260830015600 71 134 3.0 7.0 0.00 0.00 0.00 86 1018.4
20260830015451 71 153 2.0 7.0 0.00 0.00 0.00 86 1018.5
20260830015402 71 150 2.0 7.0 0.00 0.00 0.00 86 1018.5
20260830015253 71 150 2.0 7.0 0.00 0.00 0.00 86 1018.5
20260830015204 71 161 2.0 9.0 0.00 0.00 0.00 86 1018.6
20260830015115 71 161 2.0 9.0 0.00 0.00 0.00 86 1018.5
20260830015004 71 186 2.0 9.0 0.00 0.00 0.00 86 1018.5
20260830014859 71 165 2.0 9.0 0.00 0.00 0.00 86 1018.5
20260830014809 71 144 2.0 9.0 0.00 0.00 0.00 86 1018.6
20260830014718 71 148 2.0 9.0 0.00 0.00 0.00 86 1018.7
20260830014621 71 196 2.0 9.0 0.00 0.00 0.00 86 1018.7
20260830014450 71 178 3.0 9.0 0.00 0.00 0.00 86 1018.6
20260830014401 71 153 3.0 9.0 0.00 0.00 0.00 86 1018.6
20260830014251 71 159 3.0 7.0 0.00 0.00 0.00 87 1018.5
20260830014202 71 154 2.0 7.0 0.00 0.00 0.00 87 1018.5
20260830014114 71 146 3.0 7.0 0.00 0.00 0.00 86 1018.3
20260830014003 71 176 3.0 7.0 0.00 0.00 0.00 87 1018.4
20260830013858 71 146 2.0 7.0 0.00 0.00 0.00 87 1018.5
20260830013808 71 138 3.0 7.0 0.00 0.00 0.00 86 1018.4
20260830013658 71 126 3.0 7.0 0.00 0.00 0.00 86 1018.4
20260830013548 71 117 3.0 7.0 0.00 0.00 0.00 86 1018.4
20260830013457 71 134 2.0 7.0 0.00 0.00 0.00 86 1018.4
20260830013348 71 142 1.0 4.0 0.00 0.00 0.00 86 1018.5
20260830013302 71 160 0.0 2.0 0.00 0.00 0.00 86 1018.5
20260830013151 71 160 0.0 2.0 0.00 0.00 0.00 86 1018.5
20260830013112 71 160 1.0 3.0 0.00 0.00 0.00 85 1018.4
20260830012947 71 161 2.0 3.0 0.00 0.00 0.00 85 1018.4
20260830012858 71 161 1.0 6.0 0.00 0.00 0.00 85 1018.4
20260830012748 71 161 1.0 6.0 0.00 0.00 0.00 85 1018.4
20260830012659 71 161 0.0 6.0 0.00 0.00 0.00 85 1018.4
20260830012549 71 161 0.0 6.0 0.00 0.00 0.00 85 1018.3
20260830012502 71 161 1.0 6.0 0.00 0.00 0.00 85 1018.3
20260830012411 71 150 2.0 7.0 0.00 0.00 0.00 85 1018.3
20260830012301 71 158 2.0 7.0 0.00 0.00 0.00 85 1018.2
20260830012213 71 143 3.0 7.0 0.00 0.00 0.00 85 1018.1
20260830012123 71 149 3.0 7.0 0.00 0.00 0.00 85 1018.1
20260830011958 71 143 3.0 7.0 0.00 0.00 0.00 85 1018.1
20260830011908 71 146 3.0 7.0 0.00 0.00 0.00 85 1018.1
20260830011818 71 140 4.0 7.0 0.00 0.00 0.00 85 1018.1
20260830011709 71 138 4.0 7.0 0.00 0.00 0.00 85 1018.1
20260830011630 71 148 4.0 7.0 0.00 0.00 0.00 85 1018.2
20260830011521 71 135 4.0 7.0 0.00 0.00 0.00 85 1018.2
20260830011410 71 131 4.0 7.0 0.00 0.00 0.00 85 1018.2
20260830011300 71 132 4.0 7.0 0.00 0.00 0.00 85 1018.1
20260830011211 71 132 3.0 7.0 0.00 0.00 0.00 85 1018.2
20260830011121 71 129 3.0 7.0 0.00 0.00 0.00 85 1018.2
20260830010952 71 126 3.0 8.0 0.00 0.00 0.00 85 1018.1
20260830010902 71 129 3.0 8.0 0.00 0.00 0.00 85 1018.1
20260830010819 71 128 3.0 8.0 0.00 0.00 0.00 85 1018.1
20260830010647 71 113 4.0 8.0 0.00 0.00 0.00 85 1018.0
20260830010559 71 153 4.0 8.0 0.00 0.00 0.00 85 1018.0
20260830010450 71 123 4.0 8.0 0.00 0.00 0.00 85 1017.9
20260830010400 71 145 4.0 8.0 0.00 0.00 0.00 85 1017.9
20260830010254 71 131 4.0 8.0 0.00 0.00 0.00 85 1017.9
20260830010203 71 139 4.0 8.0 0.00 0.00 0.00 85 1017.9
20260830010126 71 130 4.0 7.0 0.00 0.00 0.00 85 1017.9
20260830005955 72 132 4.0 7.0 0.00 0.00 0.00 85 1018.0
20260830005850 72 136 4.0 7.0 0.00 0.00 0.00 85 1018.1
20260830005800 72 132 4.0 7.0 0.00 0.00 0.00 85 1018.1
20260830005653 72 139 4.0 7.0 0.00 0.00 0.00 84 1018.1
20260830005604 72 130 4.0 7.0 0.00 0.00 0.00 84 1018.1
20260830005516 72 133 4.0 7.0 0.00 0.00 0.00 84 1018.1
20260830005426 72 132 4.0 7.0 0.00 0.00 0.00 84 1018.2
20260830005254 72 141 4.0 7.0 0.00 0.00 0.00 84 1018.1
20260830005204 72 138 3.0 5.0 0.00 0.00 0.00 84 1018.2
20260830005053 72 149 3.0 4.0 0.00 0.00 0.00 84 1018.1
20260830004947 72 135 3.0 4.0 0.00 0.00 0.00 84 1018.2
20260830004858 72 150 3.0 5.0 0.00 0.00 0.00 83 1018.2
20260830004749 72 149 3.0 6.0 0.00 0.00 0.00 83 1018.2
20260830004658 72 144 2.0 6.0 0.00 0.00 0.00 83 1018.2
20260830004620 72 153 2.0 6.0 0.00 0.00 0.00 83 1018.3
20260830004509 72 148 2.0 6.0 0.00 0.00 0.00 83 1018.3
20260830004400 72 144 2.0 6.0 0.00 0.00 0.00 83 1018.3
20260830004251 72 154 2.0 6.0 0.00 0.00 0.00 83 1018.4
20260830004204 72 159 1.0 6.0 0.00 0.00 0.00 83 1018.4
20260830004059 72 148 2.0 6.0 0.00 0.00 0.00 83 1018.4
20260830004009 72 152 1.0 5.0 0.00 0.00 0.00 83 1018.3
20260830003858 72 150 1.0 3.0 0.00 0.00 0.00 83 1018.3
20260830003808 72 146 1.0 5.0 0.00 0.00 0.00 83 1018.3
20260830003658 72 146 2.0 5.0 0.00 0.00 0.00 83 1018.3
20260830003608 73 158 1.0 5.0 0.00 0.00 0.00 83 1018.4
20260830003458 73 139 2.0 5.0 0.00 0.00 0.00 82 1018.4
20260830003410 73 159 2.0 5.0 0.00 0.00 0.00 82 1018.4
20260830003323 73 154 2.0 5.0 0.00 0.00 0.00 82 1018.4
20260830003210 73 141 1.0 5.0 0.00 0.00 0.00 82 1018.4
20260830003133 73 159 1.0 5.0 0.00 0.00 0.00 82 1018.5
20260830003023 73 156 1.0 5.0 0.00 0.00 0.00 82 1018.5
20260830002914 73 156 1.0 3.0 0.00 0.00 0.00 82 1018.6
20260830002828 73 156 2.0 3.0 0.00 0.00 0.00 82 1018.6
20260830002716 73 156 2.0 3.0 0.00 0.00 0.00 82 1018.6
20260830002627 73 156 1.0 3.0 0.00 0.00 0.00 82 1018.6
20260830002455 73 156 1.0 3.0 0.00 0.00 0.00 82 1018.6
20260830002406 73 156 1.0 3.0 0.00 0.00 0.00 82 1018.7
20260830002256 73 156 1.0 3.0 0.00 0.00 0.00 82 1018.7
20260830002206 73 156 0.0 3.0 0.00 0.00 0.00 82 1018.7